[{"header": {"parameterCategory": 1, "parameterNumber": 2, "dx": 0.06612293990616946, "dy": 0.0552356325346848, "nx": 98, "ny": 59, "la1": 35.046912555036876, "la2": 31.78801023549047, "lo1": -121.43107172385933, "lo2": -114.95102361305473, "refTime": "2026041308"}, "data": [10.28, 10.28, 10.28, 10.28, 10.28, 10.28, 10.28, 10.28, 10.28, 10.28, 10.28, 10.28, 10.28, 10.28, 10.28, 10.28, 10.28, 9.83, 9.39, 8.94, 8.94, 8.49, 8.49, 8.94, 9.39, 9.39, 9.39, 9.83, 9.83, 10.28, 10.73, 10.73, 10.73, 10.73, 10.73, 10.73, 10.73, 11.18, 11.18, 11.62, 12.07, 12.07, 12.52, 12.52, 12.52, 12.96, 13.41, 13.41, 13.86, 13.86, 13.41, 13.41, 13.41, 13.86, 13.86, 14.3, 14.75, 14.75, 15.2, 15.65, 16.54, 16.99, 17.43, 17.88, 18.33, 18.33, 18.33, 18.78, 18.78, 18.33, 18.33, 18.33, 18.33, 18.33, 17.88, 16.99, 16.09, 15.65, 15.65, 16.09, 16.54, 16.99, 16.99, 16.99, 16.54, 16.54, 16.54, 16.99, 16.99, 16.54, 16.54, 16.54, 16.09, 16.09, 16.09, 16.09, 16.09, 16.09, 10.73, 10.73, 11.18, 11.18, 11.18, 11.18, 11.18, 11.18, 11.18, 11.18, 11.18, 11.18, 11.18, 11.18, 11.18, 10.73, 10.73, 10.28, 9.83, 9.39, 9.39, 9.39, 9.39, 9.83, 10.28, 10.28, 10.28, 10.28, 10.73, 10.73, 11.18, 11.62, 11.62, 11.18, 11.18, 11.18, 11.18, 11.62, 12.07, 12.52, 12.52, 12.96, 12.52, 12.96, 12.96, 13.41, 13.86, 13.86, 13.86, 13.86, 13.86, 13.86, 14.3, 14.3, 14.75, 15.2, 15.2, 15.65, 15.65, 16.09, 16.99, 17.43, 17.88, 18.33, 18.78, 18.78, 19.22, 19.22, 19.22, 18.78, 18.78, 18.78, 18.78, 18.78, 18.33, 17.88, 16.54, 15.65, 15.65, 16.09, 16.54, 16.99, 16.99, 16.99, 16.54, 16.54, 16.54, 16.99, 16.99, 16.54, 16.54, 16.54, 16.09, 16.09, 16.09, 16.09, 16.09, 16.09, 11.62, 11.62, 11.62, 11.62, 11.62, 12.07, 12.07, 11.62, 11.62, 11.62, 11.62, 11.62, 12.07, 12.07, 11.62, 11.62, 11.18, 10.73, 10.28, 10.28, 10.28, 10.28, 10.73, 10.73, 10.73, 11.18, 11.18, 11.18, 11.18, 11.62, 11.62, 12.07, 12.07, 11.62, 11.62, 11.62, 11.62, 12.07, 12.52, 12.96, 12.96, 12.96, 12.96, 13.41, 13.41, 13.41, 13.41, 13.41, 13.86, 13.86, 14.3, 14.3, 14.75, 15.2, 15.2, 15.65, 15.65, 15.65, 16.09, 16.54, 17.43, 17.88, 18.33, 18.78, 19.22, 19.22, 19.67, 19.67, 19.22, 19.22, 18.78, 18.33, 18.78, 18.78, 18.78, 18.33, 16.99, 16.09, 16.09, 16.54, 16.54, 16.99, 16.99, 16.99, 16.54, 16.54, 16.99, 16.99, 16.99, 16.99, 16.99, 16.54, 16.54, 16.54, 16.09, 16.54, 16.54, 16.54, 12.52, 12.52, 12.52, 12.52, 12.52, 12.52, 12.52, 12.52, 12.52, 12.52, 12.52, 12.52, 12.52, 12.52, 12.07, 11.62, 11.62, 11.18, 11.18, 11.18, 11.18, 11.62, 11.62, 11.62, 11.62, 11.62, 11.62, 12.07, 12.07, 12.07, 12.52, 12.52, 12.52, 12.07, 12.07, 12.07, 12.07, 12.52, 12.96, 12.96, 12.96, 13.41, 13.41, 13.41, 13.41, 13.41, 13.41, 13.41, 13.86, 14.3, 14.75, 14.75, 15.2, 15.65, 15.65, 15.65, 16.09, 16.09, 16.54, 16.99, 17.88, 18.33, 18.78, 19.22, 19.22, 19.67, 19.67, 19.67, 19.67, 19.22, 18.78, 18.33, 18.33, 18.33, 18.78, 18.33, 16.99, 16.09, 16.54, 16.54, 16.99, 16.99, 16.99, 16.99, 16.99, 16.99, 16.99, 17.43, 16.99, 16.99, 16.99, 16.54, 16.54, 16.54, 16.54, 16.54, 16.99, 16.99, 12.96, 12.96, 12.96, 12.96, 13.41, 12.96, 12.96, 12.96, 12.96, 12.96, 12.96, 12.96, 12.96, 12.96, 12.52, 12.07, 12.07, 12.07, 12.07, 12.07, 12.07, 12.52, 12.52, 12.96, 12.96, 12.52, 12.52, 12.52, 12.96, 12.96, 12.96, 12.52, 12.52, 12.52, 12.07, 12.52, 12.52, 12.52, 12.96, 13.41, 13.41, 13.41, 13.41, 12.96, 12.96, 12.96, 13.41, 13.86, 14.3, 14.75, 15.2, 15.2, 15.65, 16.09, 16.09, 16.09, 16.54, 16.54, 16.99, 17.43, 18.33, 18.78, 19.22, 19.22, 19.22, 19.22, 19.22, 19.67, 19.67, 19.67, 19.22, 18.33, 17.88, 17.88, 17.88, 17.88, 17.43, 16.54, 16.99, 16.99, 17.43, 16.99, 16.99, 16.99, 17.43, 16.99, 16.99, 17.43, 17.43, 17.43, 16.99, 16.99, 16.99, 16.99, 16.99, 16.99, 16.99, 17.43, 13.86, 13.86, 13.86, 13.86, 13.86, 13.86, 13.86, 13.86, 13.86, 13.41, 13.41, 13.41, 13.41, 12.96, 12.96, 12.52, 12.52, 12.96, 12.96, 13.41, 13.41, 13.41, 13.86, 13.86, 13.86, 13.41, 13.41, 13.41, 13.41, 12.96, 12.96, 12.96, 12.96, 12.96, 12.96, 12.96, 12.52, 12.52, 13.41, 13.86, 13.86, 13.86, 13.41, 13.41, 13.41, 13.41, 13.86, 13.86, 14.75, 15.2, 15.65, 15.65, 16.09, 16.54, 16.54, 16.54, 16.99, 17.88, 17.88, 18.33, 18.78, 19.22, 19.22, 19.67, 19.22, 19.22, 19.22, 19.67, 20.12, 20.12, 20.12, 19.67, 19.22, 18.33, 18.33, 18.33, 17.88, 17.88, 17.43, 17.43, 17.88, 17.43, 16.99, 16.99, 16.99, 16.99, 16.99, 17.43, 17.88, 17.88, 16.99, 16.99, 16.99, 17.43, 16.99, 16.99, 17.43, 17.43, 14.3, 14.3, 14.3, 14.3, 14.3, 14.3, 14.3, 14.3, 14.3, 14.3, 13.86, 13.86, 13.86, 13.41, 13.41, 13.41, 13.41, 13.86, 13.86, 14.3, 14.3, 14.3, 14.75, 14.3, 14.3, 14.3, 14.3, 13.86, 13.86, 13.86, 13.41, 13.86, 13.41, 13.41, 13.41, 13.41, 13.41, 12.96, 13.41, 14.3, 14.3, 14.3, 13.86, 13.86, 14.3, 14.3, 14.3, 14.75, 15.2, 15.65, 16.09, 16.54, 16.54, 16.99, 17.43, 17.43, 17.88, 18.33, 18.78, 18.78, 19.22, 19.22, 19.67, 19.67, 19.67, 19.67, 19.67, 20.12, 20.56, 21.01, 21.46, 21.46, 20.56, 20.12, 19.67, 19.22, 19.22, 18.78, 18.33, 18.33, 18.33, 17.88, 17.43, 16.99, 16.99, 17.43, 17.43, 17.88, 17.88, 17.88, 17.43, 17.43, 17.88, 17.88, 17.43, 17.43, 17.88, 17.88, 14.75, 15.2, 15.2, 15.2, 14.75, 14.75, 14.75, 14.75, 14.75, 14.75, 14.3, 14.3, 14.3, 14.3, 14.3, 14.75, 14.75, 14.75, 14.75, 15.2, 15.2, 15.2, 15.2, 15.2, 15.2, 14.75, 14.75, 14.75, 14.3, 14.3, 14.3, 14.3, 14.3, 14.3, 14.3, 14.3, 14.3, 13.86, 13.86, 14.3, 14.75, 14.75, 14.75, 15.2, 15.65, 15.65, 15.65, 16.09, 16.09, 16.54, 16.54, 16.99, 17.43, 17.88, 18.33, 18.33, 18.33, 18.33, 18.78, 18.78, 19.22, 19.67, 19.67, 20.12, 20.56, 20.56, 20.12, 20.56, 21.01, 21.46, 22.35, 22.35, 21.46, 21.01, 20.56, 19.67, 19.22, 19.22, 18.78, 18.78, 18.78, 17.88, 17.43, 17.43, 17.43, 17.43, 17.88, 18.33, 17.88, 17.88, 17.88, 18.33, 18.78, 18.33, 17.88, 17.88, 17.88, 17.88, 15.65, 15.65, 15.65, 15.65, 15.65, 15.65, 15.65, 15.2, 15.2, 15.2, 15.2, 15.2, 15.2, 15.2, 15.65, 15.65, 15.65, 15.65, 15.65, 15.65, 15.65, 15.65, 16.09, 16.09, 15.65, 15.2, 15.2, 15.65, 15.2, 14.75, 14.75, 15.2, 15.2, 15.2, 14.75, 14.3, 14.3, 14.3, 13.86, 14.3, 14.75, 15.2, 15.65, 16.09, 16.54, 16.99, 17.43, 17.43, 17.88, 17.88, 17.88, 17.88, 17.88, 18.33, 18.78, 18.78, 18.33, 18.33, 18.33, 18.78, 19.22, 19.67, 20.12, 20.56, 21.01, 21.01, 21.01, 21.46, 21.9, 22.35, 22.8, 22.8, 22.35, 21.9, 21.01, 20.12, 19.22, 19.22, 18.78, 18.78, 18.78, 18.33, 17.88, 17.43, 17.88, 18.33, 18.33, 18.33, 18.33, 18.33, 18.33, 19.22, 19.67, 18.78, 18.33, 18.33, 18.33, 17.88, 16.09, 16.09, 16.09, 16.09, 16.09, 16.09, 16.09, 16.09, 16.09, 16.09, 16.09, 16.09, 16.09, 16.09, 16.09, 16.54, 16.54, 16.54, 16.54, 16.54, 16.54, 16.54, 16.54, 16.54, 16.54, 16.09, 16.09, 16.09, 15.65, 15.2, 15.65, 15.65, 15.65, 15.65, 15.2, 14.3, 14.3, 14.75, 14.3, 14.3, 15.2, 15.65, 16.54, 16.99, 17.43, 17.88, 18.33, 18.33, 18.33, 18.78, 18.33, 18.33, 18.33, 18.78, 18.78, 18.78, 18.33, 18.33, 18.78, 19.22, 19.67, 19.67, 20.12, 20.56, 21.01, 21.01, 21.01, 21.46, 22.35, 22.8, 23.25, 23.25, 22.8, 21.9, 20.56, 19.67, 19.22, 19.22, 19.22, 18.78, 18.78, 18.78, 18.33, 18.33, 18.78, 18.78, 18.78, 18.78, 18.78, 18.78, 19.22, 19.22, 19.67, 19.22, 18.33, 17.88, 18.33, 17.88, 16.99, 16.99, 16.99, 16.99, 16.99, 16.99, 16.54, 16.54, 16.54, 16.54, 16.54, 16.54, 16.54, 16.99, 16.99, 16.99, 17.43, 17.43, 17.43, 17.43, 17.43, 16.99, 16.99, 16.99, 16.99, 16.99, 16.54, 16.54, 16.54, 16.09, 16.09, 16.09, 16.09, 15.65, 15.2, 14.75, 14.75, 15.2, 15.2, 15.2, 16.09, 16.54, 16.99, 17.88, 18.33, 18.78, 18.78, 19.22, 19.22, 19.22, 18.78, 18.78, 18.78, 19.22, 19.67, 19.67, 18.78, 18.78, 18.78, 19.22, 19.67, 19.67, 20.12, 20.56, 21.01, 21.46, 21.9, 21.9, 21.9, 21.9, 22.8, 23.25, 22.8, 21.9, 20.12, 19.22, 19.22, 19.22, 19.22, 19.22, 18.78, 18.78, 19.22, 18.78, 19.22, 19.22, 19.22, 19.22, 19.22, 19.22, 19.67, 19.22, 19.22, 18.78, 17.88, 17.88, 18.33, 18.33, 17.43, 17.43, 17.43, 17.43, 17.43, 17.43, 17.43, 17.43, 17.43, 17.43, 17.43, 17.43, 17.43, 17.43, 17.88, 17.88, 17.88, 17.88, 17.88, 17.88, 17.88, 17.88, 17.88, 17.88, 17.43, 17.43, 16.99, 16.99, 16.99, 16.54, 16.09, 16.09, 16.09, 15.2, 15.2, 15.2, 15.2, 15.65, 16.09, 16.09, 16.99, 17.43, 17.88, 18.78, 19.22, 19.22, 19.22, 19.22, 19.67, 19.67, 19.67, 19.67, 19.67, 20.12, 21.01, 20.56, 19.67, 19.22, 18.78, 19.22, 19.67, 20.12, 20.56, 21.46, 21.9, 22.35, 23.25, 23.25, 22.35, 21.46, 21.46, 22.35, 22.35, 21.46, 20.12, 19.22, 19.22, 19.22, 19.67, 19.67, 19.67, 19.67, 19.22, 19.22, 19.22, 19.22, 19.22, 19.67, 19.22, 19.22, 19.22, 19.22, 18.78, 18.33, 17.88, 18.33, 18.78, 18.78, 18.33, 18.33, 18.33, 18.33, 18.33, 18.33, 17.88, 17.88, 17.88, 17.88, 17.88, 17.88, 18.33, 18.33, 18.33, 18.33, 18.78, 18.78, 18.78, 18.78, 18.33, 18.33, 18.33, 17.88, 17.88, 17.43, 17.43, 16.99, 16.99, 16.54, 16.09, 16.09, 16.09, 15.65, 15.65, 16.09, 16.09, 16.54, 16.99, 16.99, 17.88, 18.33, 18.78, 19.22, 19.67, 19.67, 19.67, 19.67, 19.67, 20.12, 20.12, 19.67, 19.67, 20.12, 20.12, 20.56, 20.56, 20.12, 20.12, 20.56, 20.56, 21.46, 22.35, 23.25, 23.69, 24.14, 25.03, 25.48, 24.59, 22.8, 21.9, 21.9, 21.46, 21.01, 20.12, 20.12, 20.56, 20.12, 20.12, 20.56, 20.56, 20.12, 19.67, 20.12, 19.22, 18.78, 19.22, 19.67, 19.22, 19.22, 19.22, 19.22, 18.78, 18.78, 18.33, 18.78, 19.22, 19.22, 18.78, 18.78, 18.78, 18.78, 18.78, 18.78, 18.78, 18.78, 18.78, 18.33, 18.33, 18.78, 18.78, 18.78, 19.22, 19.22, 19.22, 19.22, 19.22, 19.22, 18.78, 18.78, 18.78, 18.33, 18.33, 17.88, 17.88, 17.43, 17.43, 16.99, 16.99, 16.54, 16.54, 16.54, 16.99, 16.99, 16.99, 17.43, 17.88, 18.33, 18.78, 18.78, 18.78, 19.22, 20.12, 20.12, 20.12, 20.12, 20.12, 20.12, 20.12, 19.67, 19.67, 19.67, 19.67, 20.56, 21.01, 20.12, 20.56, 21.46, 21.46, 21.9, 23.69, 24.59, 25.48, 26.37, 26.82, 27.27, 26.82, 25.93, 24.14, 21.9, 21.01, 20.56, 20.56, 21.46, 21.46, 21.46, 21.01, 21.01, 21.01, 20.56, 20.12, 20.56, 19.67, 18.78, 19.22, 20.12, 19.67, 19.67, 19.67, 19.67, 19.67, 19.22, 19.22, 19.67, 19.67, 19.67, 19.67, 19.67, 19.67, 19.67, 19.22, 19.22, 19.22, 19.22, 19.22, 19.22, 19.22, 19.22, 19.22, 19.22, 19.67, 19.67, 19.67, 19.67, 19.67, 19.67, 19.67, 19.22, 19.22, 19.22, 18.78, 18.78, 18.33, 18.33, 17.88, 17.88, 17.88, 17.43, 17.43, 17.88, 17.88, 17.88, 18.33, 18.78, 18.78, 18.78, 19.22, 19.22, 19.22, 19.67, 20.12, 20.56, 20.56, 20.56, 20.56, 20.56, 19.67, 19.22, 19.67, 19.67, 19.67, 20.12, 20.12, 19.22, 19.67, 21.46, 22.35, 22.8, 23.25, 24.59, 25.48, 26.37, 26.82, 27.72, 28.16, 27.27, 25.48, 22.8, 20.56, 20.56, 21.46, 22.35, 22.35, 22.35, 21.9, 21.46, 20.56, 20.56, 20.12, 20.56, 21.01, 20.12, 20.12, 20.56, 20.56, 20.56, 20.12, 20.56, 20.56, 20.12, 20.12, 20.56, 20.56, 20.56, 20.12, 20.12, 20.12, 20.12, 20.12, 19.67, 19.67, 19.67, 19.67, 19.67, 19.67, 19.67, 19.67, 20.12, 20.12, 20.12, 20.12, 20.12, 20.12, 20.12, 20.12, 19.67, 19.67, 19.22, 19.22, 19.22, 18.78, 18.78, 18.78, 18.33, 18.33, 18.33, 18.78, 18.78, 18.78, 19.22, 19.22, 19.22, 19.22, 19.22, 19.22, 19.67, 20.12, 20.56, 20.56, 21.01, 21.01, 21.01, 21.01, 21.01, 20.12, 19.67, 19.22, 19.22, 19.22, 18.78, 19.22, 19.22, 19.67, 21.01, 22.35, 22.8, 22.8, 24.14, 25.03, 25.48, 26.82, 28.61, 28.61, 28.16, 26.37, 23.69, 21.46, 21.01, 22.8, 23.25, 23.25, 22.35, 21.9, 21.46, 20.56, 20.12, 20.56, 21.01, 21.46, 21.9, 21.01, 21.01, 21.46, 21.01, 20.56, 21.46, 21.01, 20.56, 21.01, 21.01, 21.01, 21.01, 20.56, 20.56, 20.56, 20.56, 20.56, 20.12, 20.12, 20.12, 20.12, 20.12, 20.12, 20.12, 20.12, 20.12, 20.56, 20.56, 20.56, 20.56, 20.56, 20.56, 20.56, 20.12, 20.12, 19.67, 19.67, 19.67, 19.22, 19.22, 19.22, 19.22, 19.22, 19.67, 19.67, 19.67, 19.67, 20.12, 20.12, 19.67, 20.12, 20.12, 20.56, 20.56, 21.01, 21.46, 21.46, 21.9, 21.9, 21.46, 21.46, 21.01, 20.56, 20.12, 19.67, 18.78, 18.78, 18.78, 19.22, 19.67, 20.56, 21.01, 21.01, 21.46, 22.35, 23.69, 25.03, 25.93, 27.72, 28.16, 27.72, 27.72, 27.27, 25.03, 22.8, 22.35, 23.25, 24.14, 23.69, 22.8, 22.35, 21.46, 20.56, 20.56, 20.56, 21.46, 21.9, 22.35, 21.9, 21.9, 21.46, 21.01, 21.46, 21.9, 21.46, 21.01, 21.01, 21.01, 21.01, 21.01, 21.01, 21.01, 21.01, 21.01, 21.01, 20.56, 20.56, 20.56, 20.56, 20.56, 20.56, 20.56, 20.56, 20.56, 20.56, 20.56, 21.01, 21.01, 21.01, 20.56, 20.56, 20.56, 20.56, 20.12, 20.12, 20.12, 20.12, 20.12, 20.12, 20.12, 20.12, 20.12, 20.12, 20.12, 20.12, 20.56, 20.56, 20.56, 20.56, 21.01, 21.9, 21.9, 22.35, 22.35, 22.35, 22.35, 21.9, 21.9, 21.46, 21.01, 20.56, 20.12, 19.67, 18.78, 18.78, 18.78, 19.22, 19.67, 20.12, 20.56, 20.56, 21.46, 22.8, 24.14, 25.03, 26.37, 27.72, 27.72, 27.27, 27.27, 27.72, 25.93, 23.69, 22.8, 23.69, 24.59, 24.14, 23.69, 22.8, 22.8, 21.9, 21.46, 21.9, 22.8, 22.8, 23.25, 22.8, 22.35, 21.9, 21.9, 21.9, 22.35, 22.35, 21.9, 21.46, 21.46, 21.46, 21.46, 21.46, 21.46, 21.46, 21.46, 21.01, 21.01, 21.01, 21.01, 20.56, 20.56, 20.56, 21.01, 21.01, 21.01, 21.01, 21.01, 21.01, 21.01, 21.01, 21.01, 21.01, 21.01, 21.01, 20.56, 20.56, 20.56, 20.56, 21.01, 21.01, 21.01, 21.01, 21.01, 21.01, 21.01, 21.01, 21.01, 21.46, 21.46, 21.9, 22.35, 22.8, 22.8, 22.8, 22.8, 22.35, 22.35, 22.35, 21.9, 21.46, 21.01, 20.56, 20.12, 19.67, 19.22, 19.22, 19.22, 20.12, 20.56, 21.01, 21.46, 21.9, 23.25, 24.14, 25.03, 25.93, 26.82, 27.72, 27.72, 28.16, 28.61, 28.61, 26.37, 23.69, 22.8, 23.69, 24.59, 24.59, 24.59, 24.14, 24.14, 23.69, 23.25, 23.25, 23.25, 23.25, 23.69, 23.69, 23.69, 22.8, 23.25, 22.35, 22.35, 22.8, 22.35, 21.9, 21.46, 21.9, 21.9, 21.9, 21.9, 21.46, 21.46, 21.46, 21.46, 21.01, 21.01, 21.01, 21.01, 21.01, 21.01, 21.01, 21.01, 21.46, 21.46, 21.46, 21.46, 21.46, 21.46, 21.46, 21.46, 21.46, 21.46, 21.01, 21.46, 21.46, 21.46, 21.46, 21.9, 21.46, 21.9, 21.9, 21.9, 21.9, 22.35, 22.35, 22.8, 23.25, 23.25, 23.25, 23.25, 23.25, 23.25, 22.8, 22.35, 21.9, 21.9, 21.46, 21.01, 20.56, 19.67, 19.22, 19.22, 19.22, 19.67, 20.56, 21.46, 21.9, 22.35, 23.25, 24.14, 25.03, 25.48, 26.37, 27.27, 27.72, 28.16, 29.06, 29.95, 29.5, 26.82, 23.69, 22.8, 23.25, 24.59, 25.03, 25.48, 25.03, 25.03, 25.03, 24.59, 24.59, 24.14, 23.69, 23.69, 24.14, 24.14, 23.69, 24.14, 23.25, 22.35, 22.8, 22.8, 21.9, 21.9, 22.35, 22.35, 21.9, 21.9, 21.9, 21.9, 21.46, 21.46, 21.46, 21.46, 21.46, 21.46, 21.46, 21.46, 21.46, 21.46, 21.46, 21.46, 21.9, 21.9, 21.9, 21.9, 21.9, 21.9, 22.35, 21.9, 21.9, 21.9, 22.35, 22.35, 22.35, 22.35, 22.35, 22.8, 22.8, 22.8, 23.25, 23.25, 23.69, 23.69, 23.69, 23.69, 23.69, 23.69, 23.25, 23.25, 23.25, 22.8, 22.35, 21.9, 21.46, 21.01, 20.56, 20.12, 19.67, 19.67, 20.12, 20.12, 21.01, 21.9, 22.35, 22.8, 23.69, 24.59, 25.48, 25.93, 26.82, 27.72, 28.16, 28.16, 29.06, 29.95, 29.5, 26.82, 23.69, 22.35, 23.25, 24.14, 26.37, 26.37, 25.93, 25.48, 25.93, 25.93, 25.48, 25.03, 24.59, 24.59, 24.59, 24.59, 24.14, 24.14, 24.14, 23.25, 22.8, 22.8, 22.8, 22.35, 22.8, 22.8, 22.35, 22.35, 22.35, 21.9, 21.9, 21.9, 21.9, 21.9, 21.9, 21.9, 21.9, 21.9, 21.9, 21.9, 21.9, 21.9, 22.35, 22.35, 22.35, 22.35, 22.35, 22.8, 22.8, 22.8, 22.8, 22.8, 23.25, 23.25, 23.25, 23.69, 23.69, 23.69, 23.69, 24.14, 24.14, 24.14, 24.59, 24.59, 24.59, 24.59, 24.14, 24.14, 24.14, 23.69, 23.25, 22.8, 22.35, 21.9, 21.46, 21.01, 20.56, 20.56, 20.12, 20.56, 21.01, 21.46, 21.9, 22.35, 23.25, 24.14, 24.59, 25.03, 25.93, 26.82, 27.27, 27.72, 28.61, 29.06, 29.06, 29.5, 29.5, 27.27, 23.69, 21.9, 24.59, 25.03, 26.37, 26.37, 26.37, 26.37, 26.37, 26.37, 26.37, 25.93, 25.93, 25.93, 25.93, 25.48, 25.03, 24.14, 24.59, 23.69, 23.25, 23.25, 23.25, 22.8, 23.25, 23.25, 22.8, 22.8, 22.35, 22.35, 22.35, 22.35, 22.35, 22.35, 22.35, 22.35, 22.35, 22.35, 22.35, 22.35, 22.35, 22.8, 22.8, 22.8, 22.8, 23.25, 23.25, 23.25, 23.69, 23.69, 23.69, 24.14, 24.14, 24.14, 24.59, 24.59, 24.59, 24.59, 24.59, 25.03, 25.03, 25.03, 25.48, 25.03, 25.03, 25.03, 24.59, 24.59, 24.59, 24.14, 23.69, 23.25, 22.35, 22.35, 21.9, 21.46, 21.01, 21.01, 20.56, 21.01, 21.46, 22.35, 22.8, 22.8, 24.14, 25.48, 25.93, 25.48, 25.93, 27.27, 28.16, 28.16, 28.61, 29.06, 29.06, 29.5, 29.06, 27.72, 22.35, 23.69, 24.59, 25.03, 25.48, 25.93, 26.37, 26.82, 26.82, 26.82, 26.82, 26.82, 26.82, 26.82, 26.82, 26.82, 26.37, 25.93, 25.03, 24.14, 23.69, 23.25, 23.25, 23.25, 23.25, 23.25, 23.25, 23.25, 23.25, 22.8, 22.8, 22.8, 22.8, 22.8, 22.8, 22.8, 23.25, 23.25, 23.25, 23.25, 23.25, 23.25, 23.25, 23.69, 23.69, 24.14, 24.14, 24.14, 24.59, 24.59, 24.59, 25.03, 25.03, 25.03, 25.48, 25.48, 25.48, 25.48, 25.48, 25.93, 25.93, 25.93, 25.93, 25.48, 25.48, 25.03, 25.03, 25.03, 24.59, 24.59, 24.14, 23.69, 22.8, 22.8, 22.8, 21.9, 21.46, 21.46, 21.46, 21.9, 22.35, 23.25, 24.14, 24.59, 24.59, 25.48, 26.82, 26.37, 26.37, 27.72, 28.61, 28.61, 28.61, 29.06, 29.06, 29.06, 29.06, 26.82, 24.59, 23.69, 24.59, 24.59, 25.03, 25.03, 25.93, 26.37, 26.82, 26.82, 26.82, 27.27, 27.72, 27.27, 27.27, 27.27, 26.82, 26.82, 25.48, 24.59, 24.14, 23.69, 23.25, 23.25, 23.69, 23.69, 23.69, 23.69, 23.69, 23.69, 23.69, 23.69, 23.69, 23.69, 23.69, 23.69, 23.69, 23.69, 23.69, 23.69, 23.69, 24.14, 24.14, 24.14, 24.59, 24.59, 25.03, 25.03, 25.48, 25.48, 25.48, 25.93, 25.93, 25.93, 25.93, 25.93, 25.93, 26.37, 26.37, 26.37, 26.37, 26.37, 26.37, 25.93, 25.93, 25.48, 25.48, 25.48, 25.03, 24.59, 24.14, 23.69, 23.25, 23.25, 22.8, 22.35, 21.9, 21.9, 21.9, 22.8, 23.25, 24.14, 25.03, 25.48, 25.48, 25.48, 26.37, 27.72, 28.16, 28.16, 28.61, 29.06, 29.06, 29.06, 28.61, 28.61, 28.61, 28.16, 26.82, 25.03, 24.14, 24.59, 24.59, 24.59, 25.48, 26.37, 26.82, 26.82, 26.82, 27.72, 28.16, 28.16, 28.16, 27.72, 27.72, 27.27, 26.37, 25.03, 24.14, 23.69, 23.69, 23.69, 23.69, 23.69, 24.59, 24.59, 24.59, 24.59, 24.59, 24.59, 24.14, 24.59, 24.59, 24.59, 24.59, 24.59, 24.59, 24.59, 24.59, 24.59, 25.03, 25.03, 25.48, 25.48, 25.93, 25.93, 26.37, 26.37, 26.37, 26.82, 26.82, 26.82, 26.82, 26.82, 26.82, 26.82, 26.82, 26.82, 26.82, 26.82, 26.82, 26.37, 26.37, 25.93, 25.93, 25.48, 25.48, 25.03, 24.59, 24.14, 23.69, 23.69, 23.25, 22.8, 22.8, 22.8, 23.25, 23.69, 24.14, 24.59, 25.03, 25.93, 26.82, 26.37, 26.82, 28.16, 29.06, 29.06, 29.06, 29.5, 29.5, 29.06, 28.61, 28.16, 28.61, 28.16, 27.72, 26.37, 25.03, 24.59, 24.14, 25.03, 25.93, 26.37, 26.82, 26.82, 27.27, 28.16, 28.61, 28.61, 28.61, 28.16, 28.16, 28.16, 27.27, 25.48, 24.59, 24.14, 24.14, 24.14, 24.14, 24.14, 25.03, 25.03, 25.03, 25.48, 25.48, 25.03, 25.03, 25.03, 25.03, 25.48, 25.48, 25.48, 25.48, 25.48, 25.48, 25.48, 25.93, 25.93, 25.93, 26.37, 26.37, 26.82, 26.82, 27.27, 27.27, 27.27, 27.27, 27.27, 27.27, 27.27, 27.27, 27.72, 27.72, 27.72, 27.72, 27.27, 27.27, 26.82, 26.82, 26.37, 26.37, 25.93, 25.93, 25.48, 25.03, 24.59, 24.14, 24.14, 23.69, 23.69, 23.69, 23.69, 24.14, 24.59, 25.03, 25.03, 25.93, 26.37, 27.27, 28.16, 27.72, 28.16, 29.06, 29.5, 29.5, 29.5, 29.5, 28.61, 28.16, 28.16, 28.61, 28.61, 28.16, 27.72, 26.82, 25.03, 24.14, 25.48, 26.82, 26.82, 26.82, 27.27, 28.16, 28.61, 29.06, 28.61, 29.06, 28.61, 28.61, 28.16, 28.16, 27.27, 25.03, 24.59, 24.59, 24.59, 24.14, 24.14, 25.93, 25.93, 25.93, 25.93, 25.93, 25.93, 25.93, 25.93, 25.93, 25.93, 25.93, 25.93, 25.93, 25.93, 25.93, 26.37, 26.37, 26.82, 26.82, 26.82, 27.27, 27.27, 27.72, 27.72, 27.72, 28.16, 28.16, 28.61, 28.16, 28.16, 28.16, 28.16, 28.16, 27.72, 27.72, 27.72, 27.27, 27.27, 27.27, 26.82, 26.82, 26.37, 26.37, 25.93, 25.93, 25.48, 25.48, 24.59, 24.59, 24.14, 24.14, 24.59, 25.03, 25.48, 25.93, 26.37, 26.82, 27.27, 28.16, 28.61, 28.61, 28.61, 29.06, 29.95, 29.95, 29.95, 29.06, 28.61, 28.61, 28.61, 28.61, 28.61, 28.61, 28.16, 26.82, 25.48, 24.59, 25.48, 26.82, 27.27, 27.27, 27.27, 28.16, 29.06, 29.5, 29.5, 29.5, 29.06, 28.61, 28.61, 28.61, 28.16, 25.93, 25.48, 25.48, 25.03, 24.59, 24.59, 26.37, 26.37, 26.37, 26.37, 26.82, 26.82, 26.37, 26.37, 26.37, 26.37, 26.37, 26.37, 26.37, 26.82, 26.82, 26.82, 27.27, 27.27, 27.27, 27.72, 27.72, 27.72, 28.16, 28.16, 28.61, 29.06, 29.06, 28.61, 28.61, 28.61, 28.61, 28.16, 28.16, 28.16, 28.16, 28.16, 27.72, 27.72, 27.72, 27.27, 27.27, 26.82, 26.82, 26.37, 26.37, 25.93, 25.93, 25.93, 25.93, 25.03, 25.03, 25.48, 25.93, 26.37, 26.82, 27.27, 28.16, 28.61, 29.06, 29.5, 29.5, 29.06, 29.5, 30.4, 29.95, 29.5, 28.61, 28.61, 29.06, 28.61, 29.06, 29.06, 28.61, 28.16, 26.82, 25.93, 25.93, 25.93, 26.37, 26.82, 27.27, 27.72, 28.16, 29.06, 29.5, 29.95, 29.95, 29.5, 29.06, 29.06, 29.06, 28.61, 27.72, 26.37, 25.93, 25.48, 25.03, 25.03, 27.27, 27.27, 27.27, 27.27, 27.27, 27.27, 27.27, 27.27, 27.27, 27.27, 27.27, 27.27, 27.27, 27.27, 27.27, 27.72, 27.72, 27.72, 28.16, 28.16, 28.16, 28.61, 29.06, 29.06, 29.06, 29.06, 29.06, 29.06, 29.06, 28.61, 28.61, 28.61, 28.61, 28.61, 28.61, 28.16, 28.16, 28.16, 28.16, 27.72, 27.72, 27.72, 27.27, 27.27, 26.82, 25.93, 26.37, 26.82, 26.82, 26.82, 27.27, 28.16, 27.27, 27.72, 28.16, 28.61, 29.06, 29.5, 29.95, 29.95, 29.95, 29.06, 29.95, 30.4, 29.5, 29.5, 28.61, 28.61, 29.06, 29.06, 29.5, 29.5, 29.06, 27.72, 26.37, 26.37, 26.82, 26.82, 26.37, 26.37, 27.27, 28.16, 28.61, 28.61, 29.06, 29.5, 29.5, 29.5, 29.5, 29.5, 29.5, 28.61, 28.16, 26.82, 26.37, 25.93, 25.48, 25.48, 27.72, 27.72, 27.72, 27.72, 27.72, 27.72, 27.72, 27.72, 27.72, 27.72, 27.72, 27.72, 27.72, 27.72, 27.72, 28.16, 28.16, 28.16, 28.61, 28.61, 28.61, 29.5, 29.5, 29.5, 29.5, 29.5, 29.06, 29.06, 29.06, 29.06, 29.06, 29.06, 29.06, 29.06, 29.06, 28.61, 28.61, 28.61, 28.61, 28.61, 28.16, 28.16, 27.72, 27.72, 27.72, 26.82, 26.82, 27.27, 27.72, 27.72, 28.16, 29.06, 29.5, 28.61, 29.06, 29.5, 29.95, 29.95, 30.4, 30.4, 29.95, 29.95, 29.95, 29.5, 29.06, 29.5, 29.5, 29.06, 28.61, 29.06, 29.95, 30.4, 29.95, 27.72, 25.93, 25.93, 27.27, 27.72, 26.82, 26.37, 27.27, 28.16, 28.61, 28.61, 29.06, 29.06, 29.5, 29.5, 29.5, 29.5, 29.5, 29.06, 28.16, 27.27, 26.37, 25.93, 25.93, 25.93, 28.16, 28.16, 28.16, 28.16, 28.16, 28.16, 28.16, 28.16, 28.16, 27.72, 28.16, 28.16, 28.16, 28.16, 28.61, 28.61, 28.61, 29.06, 29.06, 29.5, 29.5, 29.95, 29.95, 29.95, 29.95, 29.5, 29.5, 29.5, 29.5, 29.5, 29.5, 29.5, 29.5, 29.5, 29.5, 29.5, 29.06, 29.06, 29.06, 29.06, 28.61, 28.61, 28.16, 28.16, 28.16, 27.72, 27.72, 27.72, 28.16, 28.61, 29.06, 29.5, 29.95, 30.4, 30.84, 30.4, 30.4, 30.4, 30.84, 30.84, 30.4, 30.4, 29.5, 29.06, 29.06, 29.06, 29.95, 29.95, 29.06, 29.5, 30.4, 31.29, 30.84, 28.61, 26.37, 26.37, 27.72, 28.16, 27.72, 27.27, 27.27, 28.16, 28.61, 28.61, 29.06, 29.06, 29.5, 29.5, 29.5, 29.5, 29.5, 29.06, 28.16, 27.27, 26.82, 26.37, 25.93, 25.93, 28.61, 28.61, 28.61, 28.61, 28.61, 28.61, 28.61, 28.61, 28.16, 28.16, 28.61, 28.61, 28.61, 28.61, 29.06, 29.06, 29.06, 29.5, 29.95, 29.95, 29.95, 30.4, 30.4, 30.4, 30.4, 29.95, 29.95, 29.95, 29.95, 29.95, 30.4, 29.95, 29.95, 29.95, 29.95, 29.95, 29.95, 29.95, 29.5, 29.5, 29.06, 29.06, 28.61, 28.61, 28.61, 28.61, 28.61, 28.61, 29.06, 29.5, 29.95, 30.4, 30.84, 31.29, 31.29, 31.29, 31.74, 30.84, 30.84, 30.84, 30.84, 29.95, 29.5, 29.5, 29.06, 29.06, 29.5, 30.4, 30.4, 30.4, 30.84, 31.74, 31.29, 29.5, 27.72, 26.82, 27.72, 28.16, 27.72, 27.72, 28.16, 28.61, 28.61, 29.06, 29.06, 29.5, 29.5, 29.5, 29.5, 29.5, 29.06, 28.61, 28.16, 27.27, 26.82, 26.37, 25.93, 25.93, 29.5, 29.5, 29.5, 29.5, 29.06, 29.06, 29.06, 29.06, 29.06, 29.06, 29.06, 29.06, 29.06, 29.06, 29.5, 29.5, 29.95, 29.95, 30.4, 30.4, 30.4, 30.84, 30.84, 30.84, 30.4, 30.4, 30.4, 30.4, 30.4, 30.84, 30.84, 30.84, 30.84, 30.4, 30.4, 30.4, 30.4, 30.4, 29.95, 29.95, 29.95, 29.5, 29.5, 29.5, 29.06, 29.06, 29.5, 29.95, 29.95, 30.4, 30.84, 30.84, 31.29, 31.74, 31.74, 31.74, 31.74, 31.74, 31.29, 31.29, 30.4, 29.95, 29.5, 29.5, 29.06, 29.06, 29.5, 29.95, 30.4, 30.84, 31.74, 31.74, 31.29, 30.4, 28.61, 27.27, 27.72, 28.16, 28.16, 28.16, 28.61, 29.06, 29.06, 29.06, 29.5, 29.5, 29.5, 29.95, 29.5, 29.5, 29.06, 28.61, 27.72, 27.27, 26.82, 26.37, 25.93, 25.93, 29.95, 29.95, 29.95, 29.95, 29.95, 29.5, 29.5, 29.5, 29.5, 29.5, 29.5, 29.5, 29.5, 29.5, 30.4, 30.4, 30.4, 30.84, 30.84, 30.84, 30.84, 31.29, 31.29, 31.29, 30.84, 30.84, 30.84, 30.84, 31.29, 31.29, 31.29, 31.29, 31.29, 31.29, 31.29, 30.84, 30.84, 30.84, 30.84, 30.4, 30.4, 30.4, 29.95, 29.95, 29.95, 29.95, 29.95, 30.4, 30.4, 30.84, 31.29, 31.74, 32.19, 32.19, 32.19, 32.19, 32.19, 32.19, 31.74, 30.84, 30.4, 29.95, 29.5, 29.5, 29.06, 29.5, 29.5, 29.95, 30.84, 31.29, 31.74, 32.19, 31.74, 30.84, 29.5, 28.16, 27.72, 28.16, 28.16, 28.61, 29.06, 29.06, 29.06, 29.5, 29.5, 29.5, 29.95, 29.95, 29.5, 29.5, 29.06, 28.16, 27.72, 27.27, 26.82, 26.37, 26.37, 26.37, 30.84, 30.84, 30.84, 30.4, 30.4, 29.95, 29.95, 29.95, 29.95, 29.95, 29.95, 29.95, 29.95, 30.84, 30.84, 30.84, 31.29, 31.29, 31.29, 31.74, 31.74, 31.74, 31.74, 31.74, 31.29, 31.29, 31.74, 31.74, 31.74, 31.74, 31.74, 31.74, 31.74, 31.74, 31.74, 31.74, 31.74, 31.29, 31.29, 31.29, 30.84, 30.84, 30.84, 30.4, 30.4, 30.4, 30.84, 30.84, 30.84, 31.29, 31.74, 32.63, 32.63, 32.63, 33.08, 32.63, 32.63, 32.63, 32.19, 31.29, 30.4, 29.95, 29.95, 29.5, 29.5, 29.95, 29.95, 30.4, 30.84, 31.29, 32.19, 32.63, 32.63, 31.29, 29.95, 29.06, 28.61, 28.16, 28.16, 29.06, 29.5, 29.5, 29.5, 29.5, 29.5, 29.95, 29.95, 29.95, 29.5, 29.06, 28.61, 28.16, 27.72, 27.27, 26.82, 26.37, 26.37, 26.37, 31.74, 31.74, 31.29, 31.29, 30.84, 30.84, 30.4, 30.4, 30.84, 30.84, 30.84, 30.84, 31.29, 31.29, 31.74, 31.74, 31.74, 31.74, 32.19, 32.19, 32.19, 32.19, 32.19, 32.19, 32.19, 32.19, 32.19, 32.19, 32.19, 32.19, 32.19, 32.19, 32.19, 32.19, 32.19, 32.19, 32.19, 32.19, 31.74, 31.74, 31.74, 31.29, 31.29, 30.84, 31.29, 31.29, 31.29, 31.29, 31.29, 31.74, 32.63, 33.08, 33.08, 33.08, 33.08, 33.08, 33.08, 32.63, 31.74, 31.29, 30.84, 30.4, 29.95, 29.5, 29.5, 30.4, 30.4, 30.84, 31.29, 31.74, 32.63, 33.08, 33.08, 32.19, 30.4, 29.5, 29.06, 28.61, 28.16, 28.61, 29.5, 29.5, 29.5, 29.5, 29.95, 29.95, 29.95, 29.95, 29.5, 29.06, 28.61, 28.16, 27.72, 27.27, 26.82, 26.37, 25.93, 25.93, 32.19, 32.19, 32.19, 31.74, 31.74, 31.29, 31.29, 31.29, 31.29, 31.29, 31.29, 32.19, 32.19, 32.19, 32.19, 32.19, 32.19, 32.63, 32.63, 32.63, 32.63, 32.63, 32.63, 32.63, 32.63, 32.63, 32.63, 32.63, 33.08, 33.08, 33.08, 33.08, 33.08, 32.63, 32.63, 32.63, 32.63, 32.63, 32.19, 32.19, 32.19, 31.74, 31.74, 31.29, 31.29, 31.74, 31.74, 31.74, 32.19, 32.63, 33.08, 33.53, 33.53, 33.53, 33.53, 33.53, 33.08, 33.08, 31.74, 31.29, 30.84, 30.84, 30.4, 29.95, 29.95, 30.4, 30.84, 30.84, 31.74, 32.19, 33.08, 33.53, 33.53, 33.08, 31.29, 29.95, 29.5, 29.06, 28.61, 28.61, 29.06, 29.5, 29.5, 29.5, 29.95, 29.95, 29.95, 29.95, 29.5, 29.06, 28.61, 28.16, 27.72, 27.27, 26.82, 26.37, 25.93, 25.93, 33.08, 33.08, 32.63, 32.63, 32.19, 32.19, 32.19, 32.19, 32.19, 32.19, 32.63, 32.63, 32.63, 32.63, 33.08, 33.08, 33.08, 33.08, 33.08, 33.08, 33.08, 33.08, 33.08, 33.08, 33.08, 33.08, 33.08, 33.53, 33.53, 33.53, 33.53, 33.53, 33.53, 33.08, 33.08, 33.08, 33.08, 33.08, 32.63, 32.63, 32.63, 32.19, 32.19, 32.19, 31.74, 31.74, 32.63, 32.63, 33.08, 33.53, 33.53, 33.53, 33.53, 33.97, 33.97, 33.53, 33.53, 32.63, 32.19, 31.29, 31.29, 31.29, 30.84, 31.29, 30.84, 30.84, 31.29, 31.74, 32.19, 32.19, 33.08, 33.53, 33.53, 33.53, 32.63, 30.84, 29.5, 29.5, 29.5, 29.06, 29.06, 29.06, 29.5, 29.5, 29.5, 29.95, 29.95, 29.95, 29.5, 28.61, 28.16, 27.72, 27.27, 26.82, 26.37, 26.37, 25.93, 25.93, 33.97, 33.97, 33.53, 33.53, 33.08, 33.08, 33.08, 33.08, 33.08, 33.53, 33.53, 33.53, 33.53, 33.53, 33.53, 33.53, 33.53, 33.53, 33.53, 33.53, 33.53, 33.53, 33.53, 33.53, 33.53, 33.53, 33.97, 33.97, 33.97, 33.97, 33.97, 33.97, 33.97, 33.97, 33.53, 33.53, 33.53, 33.53, 33.53, 33.08, 33.08, 32.63, 32.63, 33.08, 32.63, 32.19, 33.08, 33.53, 33.53, 33.97, 33.97, 33.97, 33.97, 33.97, 33.97, 33.97, 33.53, 32.63, 32.19, 31.74, 31.74, 31.74, 31.74, 31.74, 31.74, 31.74, 31.74, 32.19, 32.19, 32.63, 33.08, 33.53, 33.53, 33.97, 33.97, 32.63, 30.4, 29.5, 29.95, 29.5, 29.06, 29.06, 29.06, 29.5, 29.5, 29.5, 29.95, 29.5, 29.06, 28.61, 27.72, 27.27, 26.82, 26.82, 26.37, 25.93, 25.93, 25.93, 34.42, 34.42, 34.42, 33.97, 33.97, 33.97, 33.53, 33.53, 34.42, 34.42, 34.42, 34.42, 33.97, 33.97, 34.42, 34.42, 34.42, 34.42, 34.42, 34.42, 33.97, 33.97, 33.97, 33.97, 34.42, 34.42, 34.42, 34.42, 34.42, 34.42, 34.42, 34.42, 34.42, 34.42, 33.97, 33.97, 33.97, 33.97, 33.97, 33.53, 33.53, 33.53, 33.08, 33.08, 33.08, 33.08, 33.53, 33.97, 33.97, 33.97, 33.97, 33.97, 33.97, 33.97, 33.97, 33.97, 33.08, 32.63, 32.63, 32.19, 32.19, 32.19, 32.19, 32.19, 32.19, 32.19, 32.19, 32.63, 32.63, 32.63, 33.08, 33.53, 33.53, 33.97, 34.42, 33.97, 32.19, 30.4, 29.5, 29.95, 29.5, 29.06, 28.61, 29.06, 29.06, 29.5, 29.5, 29.5, 28.61, 28.16, 27.27, 26.82, 26.82, 26.37, 25.93, 25.93, 25.93, 25.93, 35.32, 35.32, 35.32, 34.87, 34.87, 34.42, 34.42, 34.87, 34.87, 34.87, 34.87, 34.87, 34.87, 34.87, 34.87, 34.87, 34.87, 34.87, 34.87, 34.87, 34.87, 34.87, 34.87, 34.87, 34.87, 34.87, 34.87, 34.87, 35.32, 34.87, 34.87, 34.87, 34.87, 34.87, 34.87, 34.42, 34.42, 34.42, 34.42, 33.97, 33.97, 33.97, 33.53, 33.53, 33.53, 33.97, 33.97, 34.42, 34.42, 34.42, 34.42, 34.42, 34.42, 34.42, 33.97, 33.97, 33.08, 33.08, 32.63, 32.63, 32.19, 32.19, 32.19, 32.19, 32.63, 32.63, 32.63, 32.63, 33.08, 33.08, 33.08, 33.53, 33.97, 33.97, 34.42, 34.42, 33.53, 31.74, 29.95, 29.5, 29.5, 29.06, 28.61, 28.61, 28.61, 29.06, 29.5, 29.06, 28.16, 27.72, 27.27, 26.82, 26.82, 26.37, 25.93, 25.93, 25.93, 25.93, 36.21, 36.21, 35.76, 35.76, 35.32, 35.32, 35.76, 35.76, 35.76, 35.76, 35.76, 35.76, 35.32, 35.32, 35.32, 35.32, 35.32, 35.32, 35.32, 35.32, 35.32, 35.32, 35.32, 35.32, 35.32, 35.32, 35.32, 35.76, 35.76, 35.32, 35.32, 35.32, 35.32, 35.32, 35.32, 34.87, 34.87, 34.87, 34.87, 34.42, 34.42, 34.42, 34.42, 34.42, 34.42, 34.42, 34.42, 34.42, 34.42, 34.42, 34.42, 34.42, 34.42, 34.42, 34.42, 33.53, 33.53, 33.08, 33.08, 32.63, 32.63, 32.63, 32.63, 32.63, 32.63, 32.63, 33.08, 33.08, 33.08, 33.08, 33.08, 33.53, 33.97, 33.97, 34.42, 34.42, 33.97, 33.08, 31.29, 29.95, 29.5, 29.06, 28.61, 28.61, 28.61, 28.61, 28.61, 28.61, 27.72, 27.27, 26.82, 26.82, 26.37, 26.37, 25.93, 25.93, 25.93, 25.93, 36.66, 36.66, 36.66, 36.21, 36.21, 36.66, 36.66, 36.66, 36.21, 36.21, 36.21, 36.21, 36.21, 36.21, 36.21, 36.21, 36.21, 35.76, 35.76, 35.76, 35.76, 35.76, 35.76, 35.76, 35.76, 35.76, 35.76, 35.76, 35.76, 35.76, 35.76, 35.76, 35.76, 35.76, 35.32, 35.32, 35.32, 34.87, 34.87, 34.87, 34.87, 34.87, 34.42, 34.87, 34.87, 34.87, 34.87, 34.87, 34.87, 34.87, 34.87, 34.87, 34.87, 34.87, 34.42, 33.97, 33.53, 33.08, 33.08, 33.08, 33.08, 33.08, 33.08, 33.08, 33.08, 33.08, 33.08, 33.53, 33.53, 33.53, 33.53, 33.97, 34.42, 34.42, 34.42, 34.42, 33.97, 33.53, 32.19, 30.84, 29.5, 28.61, 28.61, 28.61, 28.61, 28.16, 28.16, 27.72, 27.27, 26.82, 26.37, 26.37, 26.37, 26.37, 25.93, 25.93, 25.93, 25.93, 37.55, 37.55, 37.1, 37.1, 37.55, 37.1, 37.1, 37.1, 37.1, 36.66, 36.66, 36.66, 36.66, 36.66, 36.66, 36.66, 36.66, 36.66, 36.21, 36.21, 36.21, 36.21, 36.21, 36.21, 36.21, 36.21, 36.21, 36.21, 36.21, 36.21, 36.21, 36.21, 36.21, 35.76, 35.76, 35.76, 35.32, 35.32, 35.32, 34.87, 34.87, 34.87, 34.87, 34.87, 35.32, 35.32, 35.32, 35.32, 35.32, 35.32, 34.87, 34.87, 34.87, 34.87, 34.42, 33.97, 33.53, 33.53, 33.53, 33.08, 33.08, 33.08, 33.08, 33.08, 33.53, 33.53, 33.53, 33.97, 33.97, 33.97, 33.97, 34.42, 34.42, 34.42, 34.42, 34.42, 33.97, 33.53, 32.63, 31.74, 30.4, 29.06, 28.61, 28.61, 28.61, 28.16, 27.72, 27.27, 27.27, 26.37, 26.37, 26.37, 26.37, 25.93, 25.93, 25.93, 25.93, 25.93, 38.0, 38.0, 37.55, 38.0, 38.0, 38.0, 37.55, 37.55, 37.55, 37.55, 37.1, 37.1, 37.1, 37.1, 37.1, 37.1, 37.1, 37.1, 36.66, 36.66, 36.66, 36.66, 36.66, 36.66, 36.66, 36.66, 36.66, 36.66, 36.66, 36.66, 36.66, 36.66, 36.21, 36.21, 36.21, 35.76, 35.76, 35.76, 35.32, 35.32, 35.32, 35.32, 35.32, 35.32, 35.32, 35.32, 35.32, 35.32, 35.32, 35.32, 35.32, 35.32, 35.32, 34.87, 34.42, 33.97, 33.97, 33.53, 33.53, 33.53, 33.53, 33.53, 33.53, 33.53, 33.53, 33.53, 33.97, 33.97, 34.42, 33.97, 34.42, 34.42, 34.42, 34.42, 34.42, 34.42, 33.97, 33.53, 33.08, 32.19, 30.84, 29.5, 28.61, 28.61, 28.61, 28.16, 27.72, 27.27, 26.37, 26.37, 26.37, 26.37, 26.37, 25.93, 25.93, 26.37, 26.37, 26.37, 38.44, 38.44, 38.44, 38.44, 38.44, 38.44, 38.0, 38.0, 38.0, 38.0, 37.55, 37.55, 37.55, 37.55, 37.55, 37.55, 37.55, 37.55, 37.1, 37.1, 37.1, 37.1, 37.1, 37.1, 37.1, 37.1, 37.1, 37.1, 37.1, 37.1, 37.1, 36.66, 36.66, 36.66, 36.21, 36.21, 36.21, 35.76, 35.76, 35.76, 35.76, 35.76, 35.76, 35.76, 35.76, 35.76, 35.76, 35.32, 35.32, 35.32, 35.32, 35.32, 34.87, 34.87, 34.42, 33.97, 33.97, 33.97, 33.97, 33.97, 33.97, 33.97, 33.97, 33.97, 33.97, 33.97, 33.97, 33.97, 34.42, 34.42, 34.42, 34.42, 34.42, 34.42, 34.42, 33.97, 33.97, 33.53, 33.08, 32.19, 31.29, 29.95, 29.06, 28.16, 28.61, 28.16, 26.82, 26.37, 25.93, 25.93, 26.37, 26.37, 25.93, 25.93, 26.37, 26.37, 26.37, 26.37, 38.44, 38.89, 38.89, 38.89, 38.89, 38.44, 38.44, 38.44, 38.44, 38.44, 38.0, 38.0, 38.0, 38.0, 38.0, 38.0, 38.0, 37.55, 37.55, 37.55, 37.55, 37.55, 37.55, 37.55, 37.55, 37.55, 37.1, 37.1, 37.1, 37.1, 37.1, 37.1, 37.1, 36.66, 36.66, 36.21, 36.21, 36.21, 36.21, 35.76, 35.76, 35.76, 35.76, 35.76, 35.76, 35.76, 35.76, 35.76, 35.32, 35.32, 35.32, 35.32, 34.87, 34.42, 34.42, 34.42, 34.42, 34.42, 34.42, 34.42, 33.97, 33.97, 33.97, 33.97, 34.42, 34.42, 34.42, 34.42, 34.42, 34.42, 34.42, 33.97, 33.97, 33.97, 33.97, 33.97, 33.53, 33.53, 33.08, 32.63, 31.74, 30.4, 29.5, 28.16, 28.16, 27.27, 26.37, 26.37, 25.93, 25.93, 25.93, 25.93, 26.37, 26.37, 26.37, 26.82, 26.82, 26.82, 38.89, 39.34, 38.89, 38.89, 38.89, 38.89, 38.89, 38.89, 38.44, 38.44, 38.44, 38.44, 38.44, 38.44, 38.0, 38.0, 38.0, 38.0, 38.0, 38.0, 38.0, 38.0, 38.0, 38.0, 37.55, 37.55, 37.55, 37.55, 37.55, 37.55, 37.55, 37.1, 37.1, 36.66, 36.66, 36.66, 36.21, 36.21, 36.21, 36.21, 36.21, 36.21, 36.21, 36.21, 36.21, 35.76, 35.76, 35.76, 35.76, 35.32, 35.32, 34.87, 34.87, 34.87, 34.87, 34.87, 34.87, 34.42, 34.42, 34.42, 34.42, 34.42, 34.42, 34.42, 34.42, 34.42, 34.42, 34.42, 34.42, 34.42, 33.97, 33.97, 33.97, 33.97, 33.97, 33.97, 33.53, 33.08, 33.08, 32.63, 31.74, 30.84, 29.5, 28.61, 27.72, 26.82, 25.93, 25.93, 26.37, 25.93, 25.48, 25.93, 26.37, 26.37, 26.37, 26.82, 26.82, 26.82, 39.34, 39.34, 39.34, 39.34, 39.34, 38.89, 38.89, 38.89, 38.89, 38.89, 38.89, 38.44, 38.44, 38.44, 38.44, 38.44, 38.44, 38.44, 38.44, 38.44, 38.44, 38.0, 38.0, 38.0, 38.0, 38.0, 37.55, 37.55, 37.55, 37.55, 37.55, 37.55, 37.1, 37.1, 36.66, 36.66, 36.66, 36.21, 36.21, 36.21, 36.21, 36.21, 36.21, 36.21, 36.21, 35.76, 35.76, 35.76, 35.76, 35.32, 35.32, 35.32, 34.87, 34.87, 34.87, 34.87, 34.87, 34.87, 34.87, 34.87, 34.87, 34.87, 34.87, 34.42, 34.42, 34.42, 34.42, 34.42, 34.42, 34.42, 33.97, 33.97, 33.53, 33.53, 33.97, 33.97, 33.53, 33.08, 32.63, 32.63, 32.19, 31.29, 29.95, 28.16, 27.72, 26.82, 25.48, 25.93, 26.37, 26.37, 25.93, 25.93, 26.37, 26.37, 26.37, 26.82, 26.82, 26.82, 39.34, 39.34, 39.34, 39.34, 39.34, 39.34, 39.34, 38.89, 38.89, 38.89, 38.89, 38.89, 38.89, 38.89, 38.89, 38.44, 38.44, 38.44, 38.44, 38.44, 38.44, 38.44, 38.44, 38.0, 38.0, 38.0, 38.0, 38.0, 37.55, 37.55, 37.55, 37.55, 37.1, 37.1, 36.66, 36.66, 36.66, 36.21, 36.21, 36.21, 36.21, 36.21, 36.21, 36.21, 36.21, 35.76, 35.76, 35.76, 35.76, 35.32, 35.32, 35.32, 35.32, 35.32, 35.32, 35.32, 35.32, 35.32, 35.32, 34.87, 34.87, 34.87, 34.87, 34.87, 34.42, 34.42, 34.42, 34.42, 34.42, 34.42, 33.97, 33.97, 33.53, 33.53, 33.53, 33.53, 33.53, 33.08, 32.63, 32.19, 32.19, 31.74, 28.61, 27.72, 27.72, 26.37, 25.48, 25.48, 25.93, 26.37, 26.37, 26.37, 26.82, 26.82, 26.82, 26.82, 26.82, 26.82, 39.34, 39.34, 39.34, 39.34, 39.34, 39.34, 39.34, 39.34, 38.89, 38.89, 38.89, 38.89, 38.89, 38.89, 38.89, 38.89, 38.89, 38.89, 38.44, 38.44, 38.44, 38.44, 38.44, 38.44, 38.0, 38.0, 38.0, 38.0, 37.55, 37.55, 37.55, 37.55, 37.1, 37.1, 36.66, 36.66, 36.21, 36.21, 36.21, 36.21, 36.21, 36.21, 36.21, 36.21, 36.21, 35.76, 35.76, 35.76, 35.76, 35.76, 35.76, 35.76, 35.76, 35.76, 35.76, 35.76, 35.32, 35.32, 35.32, 35.32, 34.87, 34.87, 34.87, 34.87, 34.42, 34.42, 34.42, 34.42, 34.42, 34.42, 33.97, 33.97, 33.97, 33.53, 33.53, 33.08, 33.53, 33.08, 32.63, 32.63, 32.19, 32.19, 29.5, 27.72, 26.82, 26.37, 25.03, 25.03, 25.48, 26.37, 26.37, 26.37, 26.82, 26.82, 26.82, 26.82, 26.82, 26.82, 39.34, 39.34, 39.34, 39.34, 39.34, 39.34, 39.34, 39.34, 39.34, 38.89, 38.89, 38.89, 38.89, 38.89, 38.89, 38.89, 38.89, 38.89, 38.89, 38.44, 38.44, 38.44, 38.44, 38.0, 38.0, 38.0, 38.0, 37.55, 37.55, 37.55, 37.55, 37.1, 37.1, 37.1, 36.66, 36.66, 36.21, 36.21, 36.21, 36.21, 36.21, 36.21, 36.21, 36.21, 36.21, 36.21, 36.21, 36.21, 36.21, 36.21, 36.21, 36.21, 35.76, 35.76, 35.76, 35.76, 35.76, 35.76, 35.32, 35.32, 34.87, 34.87, 34.87, 34.42, 34.42, 34.42, 34.42, 34.42, 34.42, 34.42, 33.97, 33.97, 33.97, 33.53, 33.08, 33.08, 33.08, 33.08, 32.63, 32.63, 32.19, 31.74, 29.95, 27.72, 26.37, 25.93, 25.03, 25.03, 25.03, 25.93, 26.37, 26.37, 26.37, 26.82, 26.82, 27.27, 27.27, 27.27, 39.34, 39.34, 39.34, 39.34, 39.34, 39.34, 39.34, 39.34, 38.89, 38.89, 38.89, 38.89, 38.89, 38.89, 38.89, 38.89, 38.89, 38.89, 38.89, 38.44, 38.44, 38.44, 38.44, 38.0, 38.0, 38.0, 37.55, 37.55, 37.55, 37.55, 37.1, 37.1, 37.1, 36.66, 36.66, 36.66, 36.21, 36.21, 36.21, 36.21, 36.66, 36.66, 36.66, 36.21, 36.21, 36.21, 36.21, 36.21, 36.66, 36.66, 36.66, 36.21, 36.21, 36.21, 36.21, 36.21, 35.76, 35.76, 35.32, 35.32, 34.87, 34.87, 34.42, 34.42, 34.42, 34.42, 34.42, 34.42, 34.42, 34.42, 33.97, 33.97, 33.97, 33.53, 33.08, 33.08, 32.63, 33.08, 32.63, 32.63, 32.19, 31.74, 30.84, 28.61, 26.37, 25.48, 25.48, 25.03, 25.03, 25.48, 26.37, 26.37, 26.37, 26.82, 26.82, 27.27, 27.27, 27.27, 38.89, 38.89, 38.89, 38.89, 38.89, 38.89, 38.89, 38.89, 38.89, 38.89, 38.89, 38.89, 38.89, 38.89, 38.89, 38.89, 38.89, 38.89, 38.44, 38.44, 38.44, 38.44, 38.44, 38.0, 38.0, 37.55, 37.55, 37.55, 37.55, 37.1, 37.1, 37.1, 36.66, 36.66, 36.66, 36.66, 36.66, 36.66, 36.66, 36.66, 36.66, 36.66, 36.66, 36.66, 36.66, 36.66, 36.66, 36.66, 37.1, 36.66, 36.66, 36.66, 36.21, 36.21, 36.21, 35.76, 35.76, 35.32, 35.32, 34.87, 34.87, 34.42, 34.42, 34.42, 34.42, 34.42, 34.42, 34.42, 34.42, 33.97, 33.97, 33.97, 33.53, 33.53, 33.08, 32.63, 32.63, 32.63, 32.63, 32.19, 32.19, 31.74, 30.84, 29.5, 26.82, 25.93, 25.93, 25.48, 25.03, 25.03, 25.93, 25.93, 25.93, 26.37, 27.27, 27.27, 27.27, 27.27, 38.44, 38.44, 38.89, 38.89, 38.89, 38.89, 38.89, 38.89, 38.89, 38.89, 38.89, 38.89, 38.89, 38.89, 38.89, 38.89, 38.44, 38.44, 38.44, 38.44, 38.44, 38.0, 38.0, 38.0, 37.55, 37.55, 37.1, 37.1, 37.1, 37.1, 36.66, 36.66, 36.66, 36.66, 36.66, 36.66, 36.66, 36.66, 36.66, 37.1, 37.1, 37.1, 37.1, 37.1, 37.1, 37.1, 37.1, 37.1, 37.1, 37.1, 37.1, 36.66, 36.66, 36.21, 36.21, 35.76, 35.32, 35.32, 34.87, 34.87, 34.87, 34.42, 34.42, 34.42, 34.42, 34.42, 34.42, 34.42, 33.97, 33.97, 33.97, 33.53, 33.53, 33.08, 33.08, 32.63, 32.63, 32.19, 32.19, 32.19, 32.19, 31.74, 31.29, 29.95, 27.72, 26.37, 25.93, 25.93, 25.03, 25.03, 25.03, 25.93, 26.37, 26.82, 27.27, 27.72, 27.72, 27.72, 38.44, 38.44, 38.44, 38.44, 38.44, 38.44, 38.44, 38.44, 38.44, 38.44, 38.44, 38.44, 38.44, 38.44, 38.44, 38.44, 38.44, 38.44, 38.44, 38.0, 38.0, 38.0, 38.0, 37.55, 37.55, 37.1, 37.1, 37.1, 37.1, 36.66, 36.66, 36.66, 36.66, 36.66, 36.66, 36.66, 37.1, 37.1, 37.1, 37.1, 37.55, 37.55, 37.55, 37.55, 37.1, 37.1, 37.55, 37.1, 37.1, 37.1, 37.1, 36.66, 36.21, 36.21, 35.76, 35.76, 35.32, 34.87, 34.87, 34.87, 34.42, 34.42, 34.42, 34.42, 34.42, 34.42, 33.97, 33.97, 33.97, 33.97, 33.53, 33.53, 33.53, 33.08, 33.08, 32.63, 32.63, 32.19, 32.19, 31.74, 31.74, 31.74, 31.29, 29.95, 28.16, 26.82, 26.37, 25.93, 25.48, 24.59, 25.03, 25.48, 25.93, 26.82, 27.27, 27.72, 27.72, 27.72, 38.0, 38.0, 38.0, 38.0, 38.44, 38.44, 38.44, 38.44, 38.44, 38.44, 38.44, 38.44, 38.44, 38.44, 38.44, 38.44, 38.0, 38.0, 38.0, 38.0, 38.0, 37.55, 37.55, 37.55, 37.1, 37.1, 37.1, 36.66, 36.66, 36.66, 36.66, 36.66, 36.66, 37.1, 37.1, 37.1, 37.1, 37.1, 37.55, 37.55, 37.55, 37.55, 37.55, 37.55, 37.55, 37.55, 37.55, 37.1, 37.1, 37.1, 36.66, 36.21, 36.21, 35.76, 35.76, 35.32, 34.87, 34.87, 34.87, 34.42, 34.42, 34.42, 34.42, 34.42, 33.97, 33.97, 33.97, 33.97, 33.53, 33.53, 33.53, 33.53, 33.08, 33.08, 32.63, 32.63, 32.19, 32.19, 31.74, 31.74, 31.74, 31.29, 30.84, 30.4, 29.06, 27.72, 26.82, 26.37, 25.48, 25.03, 24.59, 25.48, 25.93, 26.82, 27.27, 27.72, 27.72, 27.72, 38.0, 38.0, 38.0, 38.0, 38.44, 38.44, 38.44, 38.44, 38.44, 38.44, 38.44, 38.44, 38.44, 38.44, 38.44, 38.44, 38.0, 38.0, 38.0, 38.0, 38.0, 37.55, 37.55, 37.55, 37.1, 37.1, 37.1, 36.66, 36.66, 36.66, 36.66, 36.66, 36.66, 37.1, 37.1, 37.1, 37.1, 37.1, 37.55, 37.55, 37.55, 37.55, 37.55, 37.55, 37.55, 37.55, 37.55, 37.1, 37.1, 37.1, 36.66, 36.21, 36.21, 35.76, 35.76, 35.32, 34.87, 34.87, 34.87, 34.42, 34.42, 34.42, 34.42, 34.42, 33.97, 33.97, 33.97, 33.97, 33.53, 33.53, 33.53, 33.53, 33.08, 33.08, 32.63, 32.63, 32.19, 32.19, 31.74, 31.74, 31.74, 31.29, 30.84, 30.4, 29.5, 28.16, 27.27, 26.37, 25.93, 25.48, 25.03, 25.48, 25.93, 26.82, 27.27, 27.27, 27.27, 27.27]}, {"header": {"parameterCategory": 1, "parameterNumber": 3, "dx": 0.06612293990616946, "dy": 0.0552356325346848, "nx": 98, "ny": 59, "la1": 35.046912555036876, "la2": 31.78801023549047, "lo1": -121.43107172385933, "lo2": -114.95102361305473, "refTime": "2026041308"}, "data": [-0.45, -0.45, 0.0, 0.0, 0.0, 0.45, 0.89, 1.34, 1.79, 2.24, 2.68, 3.13, 4.02, 4.47, 4.92, 4.92, 5.36, 5.36, 5.36, 4.92, 4.92, 4.92, 5.81, 6.26, 6.71, 7.15, 7.15, 7.15, 7.6, 7.6, 7.6, 7.6, 7.15, 7.15, 7.15, 7.15, 7.15, 7.6, 7.6, 7.6, 7.6, 7.6, 7.6, 8.05, 8.05, 8.05, 8.49, 8.94, 8.94, 8.94, 9.39, 9.39, 9.83, 10.28, 10.73, 11.18, 11.62, 11.62, 12.07, 12.07, 12.52, 12.52, 12.96, 12.96, 12.96, 12.52, 12.07, 12.07, 12.07, 12.07, 12.07, 12.07, 11.62, 11.62, 11.62, 11.62, 12.07, 12.52, 13.41, 14.3, 15.2, 16.09, 16.54, 16.99, 17.88, 18.33, 18.78, 19.67, 20.12, 20.56, 21.01, 21.01, 21.01, 21.01, 21.46, 21.9, 22.8, 23.25, -0.45, 0.0, 0.0, 0.0, 0.45, 0.89, 0.89, 1.34, 1.79, 2.24, 2.68, 3.58, 4.02, 4.47, 4.47, 4.92, 4.92, 5.36, 4.92, 4.92, 4.92, 4.92, 5.81, 6.26, 6.71, 6.71, 7.15, 7.15, 7.15, 7.6, 7.6, 7.6, 7.15, 7.15, 6.71, 6.71, 7.15, 7.15, 7.6, 8.05, 8.05, 8.05, 8.05, 8.49, 8.49, 8.94, 8.94, 9.39, 9.39, 9.39, 9.83, 9.83, 10.28, 10.73, 11.18, 11.18, 11.62, 12.07, 12.07, 12.52, 12.52, 12.96, 12.96, 12.96, 12.96, 12.52, 12.52, 12.52, 12.07, 12.07, 12.07, 12.07, 12.07, 12.07, 12.07, 12.52, 12.52, 12.52, 13.41, 14.3, 15.2, 16.09, 16.54, 16.99, 17.88, 18.33, 18.78, 19.67, 20.12, 20.56, 21.01, 21.01, 21.01, 21.01, 21.46, 21.9, 22.8, 23.25, 0.0, 0.0, 0.0, 0.45, 0.45, 0.89, 1.34, 1.34, 1.79, 2.24, 3.13, 3.58, 4.02, 4.02, 4.47, 4.47, 4.92, 4.92, 4.92, 4.47, 4.92, 4.92, 5.36, 5.81, 6.26, 6.26, 6.71, 6.71, 7.15, 7.15, 7.15, 7.6, 7.15, 7.15, 7.15, 7.15, 7.15, 7.6, 8.05, 8.05, 8.05, 8.49, 8.94, 8.94, 9.39, 9.39, 9.39, 9.83, 9.83, 10.28, 10.28, 10.73, 11.18, 11.18, 11.62, 11.62, 12.07, 12.07, 12.52, 12.52, 12.96, 12.96, 12.96, 12.52, 12.52, 12.52, 12.52, 12.52, 12.52, 12.52, 12.07, 12.07, 12.52, 12.52, 12.96, 13.41, 13.86, 13.41, 14.3, 15.2, 15.65, 16.54, 16.99, 17.43, 17.88, 18.33, 19.22, 19.67, 20.12, 20.56, 20.56, 21.01, 21.01, 21.46, 21.9, 22.35, 23.25, 23.69, 0.0, 0.0, 0.45, 0.45, 0.89, 0.89, 1.34, 1.79, 2.24, 2.68, 3.13, 3.58, 3.58, 4.02, 4.02, 4.47, 4.47, 4.47, 4.47, 4.47, 4.92, 4.92, 5.36, 5.81, 5.81, 6.26, 6.26, 6.71, 6.71, 6.71, 7.15, 7.15, 7.15, 7.15, 7.15, 7.15, 7.6, 8.05, 8.49, 8.49, 8.49, 8.94, 8.94, 9.39, 9.39, 9.83, 9.83, 10.28, 10.28, 10.73, 11.18, 11.18, 11.62, 11.62, 12.07, 12.07, 12.07, 12.52, 12.52, 12.96, 12.96, 12.96, 12.52, 12.07, 12.07, 12.07, 12.52, 12.52, 12.52, 12.52, 12.52, 12.52, 12.96, 13.41, 14.3, 14.75, 15.2, 15.2, 15.2, 15.65, 16.09, 16.54, 16.99, 17.43, 17.88, 18.33, 19.22, 19.67, 20.12, 20.12, 20.56, 20.56, 21.01, 21.46, 22.35, 22.8, 23.25, 23.69, 0.0, 0.0, 0.45, 0.89, 0.89, 1.34, 1.34, 1.79, 2.24, 2.68, 3.13, 3.13, 3.58, 3.58, 4.02, 4.02, 4.47, 4.47, 4.47, 4.47, 4.47, 4.92, 5.36, 5.36, 5.81, 5.81, 5.81, 6.26, 6.26, 6.71, 6.71, 6.71, 6.71, 7.15, 7.15, 7.6, 7.6, 8.49, 8.49, 8.94, 8.94, 8.94, 8.94, 9.39, 9.39, 9.83, 10.28, 10.73, 11.18, 11.18, 11.62, 12.07, 12.07, 12.07, 12.07, 12.07, 12.07, 12.52, 12.52, 12.52, 12.52, 12.52, 12.07, 12.07, 11.62, 11.62, 12.07, 12.07, 12.52, 12.52, 12.52, 12.52, 12.96, 13.86, 14.75, 15.2, 15.65, 15.65, 16.09, 16.09, 16.54, 16.54, 16.99, 17.43, 17.88, 18.33, 18.78, 19.22, 19.67, 20.12, 20.56, 20.56, 21.01, 21.9, 22.35, 22.8, 23.25, 23.25, 0.0, 0.45, 0.45, 0.89, 0.89, 1.34, 1.79, 1.79, 2.24, 2.68, 2.68, 3.13, 3.58, 3.58, 3.58, 4.02, 4.02, 4.02, 4.47, 4.47, 4.47, 4.92, 4.92, 5.36, 5.36, 5.81, 5.81, 5.81, 5.81, 6.26, 6.26, 6.26, 6.71, 7.15, 7.15, 7.6, 7.6, 8.05, 8.49, 8.94, 8.94, 8.94, 8.94, 8.94, 8.94, 9.39, 10.28, 10.73, 11.18, 11.62, 11.62, 12.07, 12.07, 12.07, 12.07, 12.07, 12.07, 12.52, 12.52, 12.52, 12.52, 12.07, 11.62, 11.18, 11.18, 11.18, 11.62, 12.07, 12.52, 12.52, 12.52, 12.52, 12.52, 12.96, 13.41, 14.3, 15.2, 15.65, 16.09, 16.54, 16.54, 16.54, 16.99, 17.43, 17.88, 17.88, 18.33, 19.22, 19.67, 20.12, 20.12, 20.12, 21.01, 21.9, 22.35, 22.8, 23.25, 23.25, 0.45, 0.45, 0.89, 0.89, 0.89, 1.34, 1.79, 1.79, 2.24, 2.68, 2.68, 3.13, 3.13, 3.58, 3.58, 4.02, 4.02, 4.02, 4.02, 4.47, 4.47, 4.92, 5.36, 5.36, 5.36, 5.36, 5.81, 5.81, 5.81, 5.81, 5.81, 6.26, 6.26, 6.71, 7.15, 7.6, 7.6, 7.6, 8.05, 8.49, 8.94, 8.94, 8.94, 8.49, 8.49, 8.94, 9.39, 9.83, 10.73, 11.18, 11.62, 12.07, 12.07, 12.07, 12.07, 12.07, 12.07, 12.52, 12.96, 12.52, 12.07, 11.62, 11.18, 11.18, 11.18, 11.18, 11.62, 11.62, 12.07, 12.52, 12.96, 12.96, 12.52, 12.52, 12.96, 13.41, 14.75, 16.09, 16.54, 16.54, 16.54, 16.99, 16.99, 17.43, 17.43, 17.88, 18.78, 19.22, 19.22, 19.67, 20.12, 20.56, 21.01, 21.9, 22.35, 22.8, 23.25, 23.69, 0.45, 0.45, 0.89, 0.89, 0.89, 1.34, 1.34, 1.79, 2.24, 2.24, 2.68, 2.68, 3.13, 3.58, 3.58, 4.02, 4.02, 4.02, 4.47, 4.47, 4.92, 4.92, 5.36, 5.36, 5.36, 5.81, 5.81, 5.81, 5.81, 5.81, 5.81, 5.81, 6.26, 6.71, 6.71, 7.15, 7.6, 7.6, 7.6, 8.05, 8.49, 8.49, 8.94, 8.94, 8.94, 8.49, 8.49, 8.94, 9.39, 10.28, 10.73, 11.62, 11.62, 11.62, 11.62, 12.07, 12.07, 12.52, 12.52, 12.52, 11.62, 11.18, 11.18, 11.18, 11.18, 11.62, 11.62, 11.62, 12.07, 12.52, 13.41, 13.86, 13.86, 13.86, 13.86, 14.3, 15.2, 16.09, 16.54, 16.99, 17.43, 16.99, 17.43, 17.43, 17.88, 18.33, 18.78, 19.22, 19.22, 19.67, 20.12, 20.56, 21.46, 21.9, 22.35, 22.8, 23.25, 23.69, 0.45, 0.45, 0.89, 0.89, 1.34, 1.34, 1.34, 1.79, 1.79, 2.24, 2.68, 2.68, 3.13, 3.58, 3.58, 4.02, 4.02, 4.02, 4.02, 4.47, 4.47, 4.92, 4.92, 5.36, 5.81, 5.81, 5.81, 5.81, 5.81, 5.81, 5.81, 5.81, 6.26, 6.26, 6.71, 6.71, 7.15, 7.6, 7.6, 7.6, 8.05, 8.49, 8.94, 9.39, 8.94, 8.94, 8.94, 8.94, 8.94, 9.39, 9.83, 10.73, 11.18, 11.62, 11.62, 12.07, 12.52, 12.52, 12.52, 12.07, 11.62, 11.18, 11.18, 11.18, 11.62, 11.62, 12.07, 12.07, 12.07, 12.96, 13.86, 14.75, 15.2, 15.2, 15.2, 15.65, 15.65, 16.09, 16.54, 16.99, 17.43, 17.43, 17.43, 17.88, 17.88, 18.33, 18.33, 18.78, 19.22, 19.67, 20.12, 21.01, 21.46, 21.9, 22.35, 22.8, 23.25, 23.25, 0.45, 0.45, 0.89, 0.89, 1.34, 1.34, 1.79, 1.79, 2.24, 2.24, 2.68, 3.13, 3.13, 3.58, 3.58, 3.58, 3.58, 4.02, 4.02, 4.02, 4.47, 4.47, 4.92, 4.92, 5.36, 5.36, 5.36, 5.36, 5.36, 5.81, 5.81, 6.26, 6.26, 6.71, 6.71, 6.71, 6.71, 7.15, 7.6, 7.6, 8.05, 8.49, 8.94, 9.39, 9.39, 9.83, 9.83, 9.83, 9.83, 9.39, 9.83, 9.83, 10.73, 11.18, 11.62, 12.07, 12.52, 12.52, 12.07, 12.07, 11.62, 11.62, 11.62, 11.62, 11.62, 11.62, 11.62, 11.62, 12.07, 12.52, 13.86, 15.2, 15.65, 15.65, 15.65, 16.09, 16.09, 16.54, 16.54, 16.54, 16.99, 17.43, 17.88, 17.88, 17.88, 18.33, 18.33, 18.78, 19.22, 20.12, 20.56, 21.46, 21.9, 22.35, 22.8, 22.8, 22.8, 23.25, 0.45, 0.45, 0.89, 0.89, 1.34, 1.34, 1.79, 1.79, 2.24, 2.68, 2.68, 3.13, 3.58, 3.58, 3.58, 3.58, 4.02, 4.02, 4.47, 4.47, 4.47, 4.47, 4.92, 4.92, 4.92, 4.92, 4.92, 4.92, 5.36, 5.36, 5.81, 6.26, 6.26, 6.26, 6.71, 6.71, 7.15, 7.15, 7.6, 8.05, 8.05, 8.49, 8.94, 9.39, 9.83, 10.28, 10.28, 10.73, 10.73, 10.73, 10.28, 10.28, 10.73, 11.18, 11.62, 12.07, 11.62, 12.07, 12.07, 11.62, 11.62, 11.62, 11.18, 11.18, 11.18, 11.18, 11.62, 11.62, 12.07, 12.52, 13.86, 15.2, 16.09, 16.54, 16.09, 16.09, 16.09, 16.09, 16.54, 16.54, 16.54, 16.99, 16.99, 17.43, 17.88, 17.88, 18.33, 18.78, 19.22, 20.56, 21.01, 21.46, 22.35, 22.8, 22.8, 22.8, 22.8, 23.25, 0.45, 0.45, 0.89, 0.89, 1.34, 1.34, 1.79, 2.24, 2.24, 2.68, 3.13, 3.13, 3.58, 3.58, 3.58, 4.02, 4.02, 4.02, 4.47, 4.47, 4.47, 4.92, 4.92, 4.92, 4.92, 4.92, 5.36, 5.36, 5.36, 5.36, 5.81, 5.81, 6.26, 6.26, 6.71, 7.15, 7.15, 7.6, 7.6, 8.05, 8.49, 8.49, 8.94, 9.39, 9.83, 10.28, 10.73, 10.73, 11.18, 11.18, 10.73, 11.18, 11.18, 11.18, 11.62, 11.62, 11.18, 11.18, 11.18, 10.73, 10.73, 10.28, 10.28, 10.28, 10.28, 10.28, 10.73, 11.62, 12.07, 12.52, 13.41, 14.75, 16.09, 16.54, 16.54, 15.65, 15.65, 15.65, 16.54, 16.99, 16.99, 16.54, 16.54, 17.43, 17.43, 17.88, 18.33, 18.78, 19.67, 20.56, 21.46, 21.9, 22.35, 22.35, 22.8, 22.8, 22.8, 23.25, 0.45, 0.45, 0.89, 1.34, 1.34, 1.79, 1.79, 2.24, 2.68, 2.68, 3.13, 3.58, 3.58, 4.02, 4.02, 4.02, 4.02, 4.47, 4.47, 4.47, 4.47, 4.47, 4.47, 4.47, 4.92, 4.92, 4.92, 4.92, 5.36, 5.36, 5.81, 5.81, 5.81, 6.26, 6.71, 7.15, 7.6, 7.6, 8.05, 8.05, 8.49, 8.94, 9.39, 9.83, 10.28, 10.28, 10.28, 10.73, 11.18, 11.18, 11.62, 12.07, 12.07, 12.52, 12.96, 12.96, 12.52, 11.62, 10.28, 9.83, 9.39, 9.39, 9.83, 9.83, 9.83, 9.83, 9.83, 10.28, 10.73, 11.18, 12.07, 12.96, 14.3, 15.2, 15.65, 15.2, 15.2, 15.65, 16.54, 16.99, 17.43, 16.99, 16.09, 16.09, 16.54, 16.99, 17.88, 19.22, 20.12, 21.01, 21.46, 21.46, 21.9, 21.9, 22.35, 22.8, 22.8, 23.25, 0.45, 0.89, 0.89, 1.34, 1.34, 1.79, 2.24, 2.24, 2.68, 3.13, 3.13, 3.58, 3.58, 4.02, 4.02, 4.02, 4.02, 4.47, 4.47, 4.47, 4.47, 4.47, 4.47, 4.47, 4.47, 4.47, 4.47, 4.92, 4.92, 4.92, 5.36, 5.81, 5.81, 6.26, 6.71, 7.15, 7.6, 8.05, 8.05, 8.49, 8.94, 9.39, 9.39, 9.83, 10.28, 10.73, 11.18, 11.18, 11.62, 12.07, 12.07, 12.52, 13.41, 13.86, 14.3, 14.3, 13.86, 12.96, 11.62, 10.73, 10.28, 10.28, 10.28, 10.28, 10.28, 10.28, 10.73, 10.73, 10.73, 11.62, 12.52, 12.52, 12.96, 13.41, 13.86, 14.75, 15.65, 16.09, 16.54, 16.99, 17.43, 16.99, 16.99, 16.54, 16.09, 16.54, 17.43, 18.78, 19.67, 20.56, 21.01, 21.46, 21.46, 21.9, 22.35, 22.8, 22.8, 23.25, 0.45, 0.89, 0.89, 1.34, 1.79, 1.79, 2.24, 2.24, 2.68, 3.13, 3.13, 3.58, 3.58, 4.02, 4.02, 4.02, 4.47, 4.47, 4.47, 4.47, 4.47, 4.47, 4.47, 4.47, 4.47, 4.47, 4.47, 4.47, 4.47, 4.47, 4.92, 5.36, 5.81, 6.26, 6.71, 7.15, 7.6, 8.05, 8.49, 8.94, 8.94, 9.39, 9.39, 9.83, 10.73, 11.18, 11.18, 11.62, 12.07, 12.07, 12.52, 12.96, 13.41, 13.86, 13.86, 13.86, 13.86, 13.86, 12.96, 12.07, 11.62, 11.62, 11.62, 11.18, 11.18, 11.18, 11.62, 12.52, 14.3, 15.2, 15.2, 14.75, 13.86, 13.41, 13.86, 15.2, 16.09, 16.54, 16.99, 17.43, 17.43, 17.43, 16.99, 17.43, 17.88, 16.99, 17.43, 18.33, 19.22, 20.12, 20.56, 21.01, 21.46, 21.9, 22.35, 23.25, 23.69, 23.69, 0.45, 0.89, 0.89, 1.34, 1.79, 1.79, 2.24, 2.68, 2.68, 3.13, 3.58, 3.58, 3.58, 4.02, 4.02, 4.02, 4.47, 4.47, 4.47, 4.47, 4.47, 4.47, 4.47, 4.47, 4.47, 4.47, 4.47, 4.47, 4.47, 4.47, 4.92, 5.36, 5.81, 6.26, 6.71, 7.15, 8.05, 8.49, 8.49, 8.49, 8.94, 8.94, 9.83, 10.28, 10.73, 11.18, 11.18, 11.62, 12.07, 12.52, 12.52, 12.52, 12.96, 13.41, 12.96, 12.96, 12.96, 13.41, 13.41, 12.96, 12.96, 12.52, 12.52, 12.07, 12.52, 12.52, 12.96, 13.86, 16.09, 16.99, 17.43, 16.99, 15.65, 14.3, 14.3, 15.65, 16.54, 17.43, 17.43, 17.43, 17.43, 17.43, 17.43, 17.88, 18.33, 19.22, 18.78, 18.78, 19.22, 20.12, 20.56, 21.9, 21.9, 22.35, 22.8, 23.25, 23.69, 23.69, 0.45, 0.89, 1.34, 1.34, 1.79, 2.24, 2.24, 2.68, 3.13, 3.13, 3.58, 3.58, 3.58, 4.02, 4.02, 4.02, 4.47, 4.47, 4.47, 4.47, 4.47, 4.47, 4.47, 4.47, 4.47, 4.47, 4.47, 4.47, 4.47, 4.92, 4.92, 5.36, 5.81, 6.71, 7.15, 7.6, 7.6, 8.05, 8.49, 8.49, 8.94, 9.39, 9.83, 10.28, 10.73, 11.18, 11.18, 11.62, 12.07, 12.07, 12.07, 12.52, 12.52, 12.07, 12.07, 12.07, 12.52, 12.52, 12.96, 12.96, 12.52, 12.07, 11.62, 12.07, 12.96, 12.96, 13.86, 14.3, 14.3, 15.65, 17.43, 18.78, 17.88, 16.09, 15.65, 16.54, 17.43, 18.33, 17.88, 17.43, 17.43, 17.43, 17.43, 17.88, 18.78, 19.22, 19.67, 20.12, 20.56, 20.56, 21.46, 21.9, 22.35, 22.35, 22.8, 23.25, 23.69, 23.69, 0.89, 0.89, 1.34, 1.79, 1.79, 2.24, 2.68, 2.68, 3.13, 3.58, 3.58, 3.58, 3.58, 4.02, 4.02, 4.02, 4.47, 4.47, 4.47, 4.47, 4.47, 4.47, 4.47, 4.47, 4.47, 4.92, 4.47, 4.47, 4.92, 5.36, 5.81, 6.26, 6.71, 7.15, 7.6, 7.6, 8.05, 8.05, 8.05, 8.49, 9.39, 9.83, 9.83, 10.28, 10.73, 10.73, 11.18, 11.62, 11.62, 11.62, 12.07, 12.07, 12.07, 12.07, 12.07, 11.62, 11.62, 11.62, 11.62, 12.07, 11.62, 11.62, 11.18, 11.62, 12.07, 12.52, 12.52, 13.86, 14.3, 15.2, 17.43, 20.12, 19.67, 18.33, 17.43, 17.88, 18.33, 18.78, 18.33, 17.43, 17.43, 16.99, 17.43, 17.88, 18.78, 19.22, 19.67, 20.56, 20.56, 21.01, 21.46, 22.35, 22.8, 22.8, 22.8, 23.25, 23.25, 23.25, 0.89, 1.34, 1.34, 1.79, 2.24, 2.24, 2.68, 3.13, 3.13, 3.58, 3.58, 3.58, 4.02, 4.02, 4.02, 4.02, 4.47, 4.47, 4.47, 4.47, 4.47, 4.47, 4.47, 4.47, 4.47, 4.92, 4.92, 4.92, 5.36, 5.81, 6.26, 6.71, 7.15, 7.6, 8.05, 8.05, 8.49, 8.94, 8.94, 9.39, 9.83, 10.28, 10.73, 10.73, 10.73, 11.18, 11.18, 11.18, 11.62, 11.62, 11.62, 11.62, 12.07, 11.62, 11.62, 11.18, 11.18, 11.18, 11.18, 11.18, 11.18, 11.18, 10.73, 11.18, 11.62, 12.07, 12.07, 13.41, 14.75, 16.09, 17.88, 20.12, 20.56, 19.22, 18.33, 18.78, 19.67, 19.67, 19.22, 18.78, 18.33, 18.33, 17.88, 17.88, 18.33, 19.22, 20.12, 20.56, 21.01, 21.46, 21.46, 21.9, 22.8, 22.8, 22.8, 22.8, 23.25, 23.25, 0.89, 1.34, 1.79, 1.79, 2.24, 2.68, 2.68, 3.13, 3.58, 3.58, 3.58, 3.58, 4.02, 4.02, 4.02, 4.47, 4.47, 4.47, 4.47, 4.47, 4.47, 4.47, 4.92, 4.92, 4.92, 4.92, 5.36, 5.36, 5.81, 6.26, 6.71, 7.15, 7.6, 8.05, 8.05, 8.49, 8.94, 9.39, 9.83, 10.28, 10.73, 10.73, 10.73, 10.73, 10.73, 10.73, 11.18, 11.18, 11.18, 11.18, 11.18, 11.62, 11.62, 11.18, 11.18, 10.73, 10.73, 10.73, 10.73, 10.73, 10.73, 10.73, 10.73, 11.18, 11.18, 11.62, 12.07, 12.52, 14.3, 16.99, 19.67, 21.46, 21.46, 19.67, 18.78, 20.12, 21.01, 21.46, 20.56, 20.12, 20.12, 20.12, 19.67, 19.22, 19.22, 19.67, 20.56, 21.46, 21.46, 21.9, 22.35, 22.35, 22.8, 22.8, 22.8, 22.8, 22.8, 22.8, 0.89, 1.34, 1.79, 1.79, 2.24, 2.68, 3.13, 3.13, 3.58, 3.58, 3.58, 4.02, 4.02, 4.02, 4.47, 4.47, 4.47, 4.47, 4.47, 4.47, 4.47, 4.92, 4.92, 5.36, 5.81, 5.81, 5.81, 5.81, 6.26, 6.71, 7.15, 7.6, 8.05, 8.49, 8.49, 8.94, 8.94, 9.39, 10.28, 10.73, 10.73, 10.73, 10.73, 10.73, 10.73, 10.73, 10.73, 10.73, 10.73, 10.73, 10.73, 10.73, 10.73, 10.73, 10.28, 10.28, 10.28, 10.28, 10.28, 10.28, 10.28, 10.28, 10.73, 11.18, 11.18, 11.62, 12.07, 12.96, 14.3, 16.09, 19.67, 21.9, 22.35, 20.56, 18.78, 20.12, 22.8, 22.35, 21.9, 21.46, 21.46, 21.01, 21.01, 20.56, 20.12, 20.12, 20.56, 21.01, 21.46, 22.35, 22.8, 22.8, 22.8, 22.8, 22.8, 22.8, 22.8, 22.8, 0.89, 1.34, 1.79, 1.79, 2.24, 2.68, 3.13, 3.13, 3.58, 3.58, 3.58, 4.02, 4.02, 4.02, 4.47, 4.47, 4.92, 4.92, 4.92, 4.92, 4.92, 4.92, 5.36, 5.81, 5.81, 6.26, 6.26, 6.71, 7.15, 7.6, 8.05, 8.05, 8.49, 8.94, 8.94, 9.39, 9.83, 10.28, 10.73, 10.73, 10.73, 10.73, 10.28, 10.28, 10.28, 10.28, 10.28, 10.28, 10.28, 10.28, 10.28, 10.28, 10.28, 9.83, 9.83, 9.83, 9.83, 9.83, 10.28, 10.28, 9.83, 10.28, 10.73, 11.18, 11.18, 11.62, 12.52, 13.41, 13.86, 14.75, 17.43, 19.22, 20.56, 19.67, 19.67, 21.46, 22.8, 23.25, 22.8, 22.35, 21.9, 21.9, 21.9, 21.01, 20.56, 20.56, 20.56, 21.01, 21.01, 21.9, 22.8, 22.8, 22.35, 22.35, 22.35, 22.35, 22.35, 22.35, 0.89, 0.89, 1.34, 1.79, 2.24, 2.68, 3.13, 3.13, 3.58, 3.58, 3.58, 4.02, 4.02, 4.47, 4.47, 4.92, 4.92, 4.92, 5.36, 5.36, 5.36, 5.36, 5.81, 6.26, 6.26, 6.71, 6.71, 7.15, 7.6, 8.05, 8.49, 8.94, 8.94, 9.39, 9.39, 9.83, 10.28, 10.73, 10.73, 10.73, 10.73, 10.28, 10.28, 10.28, 10.28, 10.28, 9.83, 9.83, 9.83, 9.83, 9.83, 9.83, 9.83, 9.39, 9.39, 9.39, 8.94, 9.39, 9.83, 10.28, 10.28, 10.28, 10.28, 10.73, 11.18, 11.62, 12.52, 13.41, 14.3, 15.2, 16.99, 17.88, 19.22, 18.78, 20.12, 21.46, 22.35, 23.25, 23.25, 23.25, 22.8, 22.8, 22.8, 21.9, 21.46, 21.01, 21.01, 21.01, 21.01, 21.46, 22.35, 22.35, 22.35, 21.9, 21.9, 22.35, 22.35, 22.35, 0.89, 0.89, 1.34, 1.79, 2.24, 2.68, 2.68, 3.13, 3.13, 3.58, 3.58, 4.02, 4.47, 4.47, 4.92, 4.92, 5.36, 5.36, 5.36, 5.81, 5.81, 5.81, 6.26, 6.71, 6.71, 7.15, 7.15, 7.6, 8.05, 8.49, 8.94, 9.39, 9.39, 9.83, 10.28, 10.73, 10.73, 11.18, 10.73, 10.73, 10.73, 10.28, 10.28, 10.28, 10.28, 9.83, 9.83, 9.39, 9.83, 9.83, 9.39, 9.39, 8.94, 8.94, 8.94, 9.39, 8.94, 9.39, 9.39, 9.83, 10.28, 10.28, 10.28, 10.73, 11.18, 11.62, 12.52, 13.41, 15.2, 16.54, 17.88, 20.56, 21.01, 20.12, 20.12, 21.01, 21.9, 22.35, 22.8, 23.25, 23.25, 23.25, 23.25, 22.8, 22.35, 21.9, 21.9, 21.9, 21.9, 21.9, 21.9, 22.35, 22.35, 21.9, 21.9, 21.9, 22.35, 22.35, 0.89, 0.89, 1.34, 1.79, 1.79, 2.24, 2.68, 3.13, 3.58, 3.58, 4.02, 4.02, 4.47, 4.92, 4.92, 5.36, 5.36, 5.81, 5.81, 5.81, 6.26, 6.26, 6.71, 6.71, 7.15, 7.15, 7.6, 8.05, 8.49, 8.94, 9.39, 9.83, 10.28, 10.28, 10.73, 11.18, 11.18, 11.18, 10.73, 10.73, 10.73, 10.73, 10.73, 10.28, 10.28, 9.83, 9.83, 9.83, 9.39, 9.39, 9.39, 8.94, 8.94, 8.94, 8.94, 9.39, 9.39, 8.94, 9.39, 8.94, 9.39, 10.73, 10.73, 10.73, 11.18, 12.07, 12.96, 13.86, 15.2, 18.33, 20.12, 21.9, 22.35, 21.01, 20.12, 21.01, 21.9, 21.9, 22.35, 22.8, 23.25, 23.25, 23.25, 23.69, 23.25, 23.25, 23.25, 22.8, 22.35, 22.35, 21.9, 21.9, 22.35, 21.9, 21.46, 21.9, 21.9, 21.9, 0.89, 0.89, 1.34, 1.79, 1.79, 2.24, 2.68, 3.13, 3.58, 3.58, 4.02, 4.47, 4.92, 4.92, 5.36, 5.36, 5.81, 5.81, 6.26, 6.26, 6.71, 6.71, 7.15, 7.15, 7.6, 7.6, 8.05, 8.49, 8.94, 9.39, 9.83, 10.28, 10.73, 10.73, 11.18, 11.18, 11.18, 11.18, 11.18, 10.73, 10.73, 10.73, 10.73, 10.28, 10.28, 9.83, 9.83, 9.39, 9.39, 9.39, 8.94, 8.94, 8.49, 8.49, 8.94, 8.94, 8.94, 8.94, 9.39, 9.83, 9.39, 10.73, 11.18, 11.18, 11.18, 12.07, 12.96, 14.3, 16.09, 17.43, 19.22, 21.01, 21.9, 21.9, 21.01, 21.01, 21.46, 21.46, 21.9, 22.35, 22.8, 23.25, 23.25, 23.69, 23.25, 23.25, 23.25, 22.8, 22.8, 22.35, 21.9, 21.46, 21.46, 21.46, 21.46, 21.46, 21.9, 21.9, 0.45, 0.45, 0.89, 1.34, 1.79, 2.24, 2.68, 3.13, 3.58, 4.02, 4.02, 4.47, 4.92, 5.36, 5.81, 5.81, 5.81, 6.26, 6.26, 6.71, 6.71, 7.15, 7.6, 7.6, 8.05, 8.49, 8.49, 9.39, 9.83, 10.28, 10.73, 11.18, 11.18, 11.18, 11.18, 11.18, 11.18, 11.62, 11.62, 11.18, 11.18, 11.18, 10.73, 10.73, 10.28, 9.83, 9.83, 9.39, 9.39, 9.39, 8.94, 8.49, 8.49, 8.49, 8.49, 8.49, 8.94, 8.94, 9.39, 9.83, 10.28, 10.28, 11.18, 11.62, 11.62, 12.52, 13.41, 15.65, 16.09, 17.43, 18.78, 20.56, 21.46, 22.35, 22.35, 21.46, 21.01, 21.46, 22.35, 22.8, 22.8, 23.25, 23.25, 23.25, 23.25, 23.25, 23.25, 22.8, 22.8, 22.35, 22.35, 22.35, 21.01, 21.01, 21.01, 21.46, 21.46, 21.46, 0.45, 0.45, 0.89, 1.34, 1.79, 2.24, 2.68, 3.13, 3.13, 4.02, 4.47, 4.92, 5.36, 5.81, 5.81, 6.26, 6.26, 6.71, 6.71, 7.15, 7.15, 7.6, 8.05, 8.05, 8.49, 8.94, 9.39, 10.28, 10.73, 11.18, 11.18, 11.18, 11.18, 11.18, 11.62, 11.62, 11.62, 11.62, 11.62, 11.62, 11.18, 11.18, 10.73, 10.73, 10.73, 10.28, 10.28, 9.39, 9.39, 8.94, 8.94, 8.49, 8.49, 8.49, 8.49, 8.49, 8.94, 8.94, 9.39, 9.83, 10.73, 11.18, 11.18, 11.62, 12.07, 13.41, 15.65, 16.54, 16.99, 17.88, 19.22, 20.56, 21.46, 22.35, 22.35, 21.9, 21.01, 21.46, 22.8, 23.25, 23.25, 23.25, 23.25, 23.69, 23.69, 23.69, 23.69, 23.25, 22.8, 22.35, 22.35, 22.8, 21.46, 21.01, 20.56, 21.01, 21.46, 21.46, 0.45, 0.45, 0.89, 1.34, 1.79, 2.24, 2.68, 3.13, 3.58, 4.02, 4.92, 5.36, 5.81, 5.81, 6.26, 6.26, 6.71, 6.71, 7.15, 7.15, 7.6, 8.05, 8.05, 8.49, 8.94, 9.83, 10.28, 11.18, 11.18, 11.62, 11.18, 11.18, 11.18, 11.62, 11.62, 11.62, 11.62, 11.62, 11.62, 11.62, 11.18, 11.18, 10.73, 10.73, 10.73, 10.73, 10.28, 10.28, 9.83, 9.39, 8.94, 8.49, 8.49, 8.49, 8.94, 8.94, 9.39, 9.39, 9.83, 10.28, 10.73, 11.62, 12.07, 12.07, 12.52, 14.75, 16.09, 17.43, 18.33, 18.78, 19.22, 20.12, 21.46, 22.8, 23.25, 22.35, 21.9, 21.46, 22.35, 23.69, 23.69, 23.25, 23.25, 23.25, 23.69, 23.69, 23.69, 23.25, 23.25, 22.8, 22.8, 22.8, 22.35, 21.46, 21.01, 20.56, 21.01, 21.01, 0.0, 0.0, 0.89, 1.34, 1.79, 2.24, 2.68, 3.13, 3.58, 4.02, 4.47, 5.36, 5.81, 6.26, 6.26, 6.71, 6.71, 7.15, 7.6, 7.6, 8.05, 8.49, 8.94, 9.39, 9.83, 10.28, 10.73, 11.18, 11.62, 11.62, 11.62, 11.62, 11.62, 11.62, 11.62, 11.62, 11.62, 11.62, 11.62, 11.62, 11.62, 11.18, 11.18, 10.73, 10.73, 10.28, 10.28, 10.28, 9.83, 9.39, 9.39, 9.39, 8.94, 8.94, 9.39, 9.39, 9.83, 10.28, 10.73, 11.18, 10.73, 11.62, 12.52, 12.96, 14.3, 15.2, 15.65, 16.54, 17.88, 18.78, 19.22, 19.67, 21.01, 22.35, 23.25, 22.8, 22.35, 22.35, 22.35, 22.8, 22.8, 22.8, 22.8, 22.8, 23.25, 23.25, 23.69, 23.69, 23.69, 23.25, 23.25, 22.8, 22.8, 21.9, 21.46, 21.01, 21.01, 21.01, 0.0, 0.0, 0.45, 0.89, 1.34, 2.24, 2.68, 3.13, 3.58, 4.02, 4.92, 5.36, 5.81, 6.26, 6.71, 6.71, 7.15, 7.6, 7.6, 8.05, 8.49, 9.39, 9.39, 9.83, 10.28, 10.73, 11.18, 11.62, 11.62, 11.62, 11.62, 11.62, 12.07, 12.07, 12.07, 12.07, 12.07, 12.07, 11.62, 11.62, 11.62, 11.62, 11.18, 10.73, 10.73, 10.28, 9.83, 10.28, 9.83, 9.83, 9.83, 10.28, 10.28, 9.83, 9.83, 10.28, 10.73, 11.18, 11.18, 11.62, 12.07, 12.52, 13.41, 14.3, 15.2, 16.09, 16.54, 16.54, 16.99, 18.33, 18.78, 19.67, 20.56, 21.46, 22.35, 21.9, 22.35, 23.25, 23.25, 22.8, 22.35, 22.35, 22.35, 22.8, 22.8, 22.8, 23.25, 23.25, 23.69, 23.25, 23.25, 22.8, 22.8, 22.35, 21.9, 21.46, 21.46, 21.46, 0.0, 0.0, 0.45, 0.89, 1.34, 2.24, 2.68, 3.13, 4.02, 4.47, 4.92, 5.36, 5.81, 6.26, 6.71, 7.15, 7.6, 7.6, 8.05, 8.94, 9.39, 9.39, 9.83, 10.28, 10.73, 11.18, 11.62, 11.62, 11.62, 12.07, 12.07, 12.07, 12.07, 12.07, 12.07, 12.07, 12.07, 12.07, 11.62, 11.62, 11.62, 11.62, 11.18, 11.18, 10.73, 10.73, 10.28, 10.28, 9.83, 9.83, 10.28, 10.73, 10.73, 11.18, 11.62, 11.18, 11.62, 11.62, 12.52, 12.96, 13.41, 13.86, 14.75, 15.65, 16.09, 16.99, 17.88, 17.88, 17.88, 18.33, 18.78, 19.67, 21.01, 21.46, 21.9, 21.01, 21.46, 22.8, 23.25, 22.8, 22.35, 21.9, 21.9, 22.35, 22.35, 22.35, 22.35, 22.8, 22.8, 22.8, 22.8, 22.8, 22.8, 22.35, 22.35, 21.9, 21.9, 21.9, 0.0, 0.0, 0.0, 0.89, 1.34, 2.24, 2.68, 3.13, 4.02, 4.47, 4.92, 5.36, 5.81, 6.26, 7.15, 7.6, 7.6, 8.49, 8.94, 9.39, 9.39, 9.83, 10.28, 10.73, 11.18, 11.62, 12.07, 12.07, 12.07, 12.07, 12.07, 12.07, 12.52, 12.52, 12.07, 12.07, 12.07, 12.07, 12.07, 11.62, 11.62, 11.62, 11.18, 11.18, 10.73, 10.73, 10.73, 10.28, 10.28, 10.28, 10.73, 11.18, 11.62, 12.07, 12.52, 12.96, 13.41, 12.96, 12.96, 13.86, 13.86, 14.75, 15.2, 16.09, 16.54, 16.99, 17.43, 18.33, 19.22, 19.22, 19.67, 20.12, 21.01, 21.9, 22.35, 21.46, 21.46, 22.35, 22.8, 22.8, 21.9, 21.9, 21.9, 21.9, 21.9, 21.9, 22.35, 22.35, 22.35, 22.35, 22.35, 22.8, 22.8, 22.35, 22.35, 22.35, 21.9, 21.9, 0.0, 0.0, 0.0, 0.89, 1.34, 2.24, 2.68, 3.58, 4.02, 4.47, 4.92, 5.36, 5.81, 6.26, 7.15, 7.6, 8.49, 8.94, 8.94, 9.39, 9.83, 10.28, 10.73, 11.18, 11.62, 12.07, 12.07, 12.07, 12.52, 12.52, 12.52, 12.52, 12.52, 12.52, 12.52, 12.52, 12.07, 12.07, 12.07, 12.07, 11.62, 11.62, 11.62, 11.18, 11.18, 11.18, 11.18, 11.18, 11.18, 11.18, 11.62, 11.62, 12.07, 12.52, 13.41, 13.86, 14.3, 14.3, 13.86, 14.3, 15.2, 15.2, 15.65, 16.09, 16.54, 16.99, 17.43, 17.88, 18.78, 19.22, 19.67, 20.12, 21.01, 21.9, 22.35, 21.46, 21.46, 21.9, 22.35, 22.35, 21.9, 21.9, 21.9, 21.9, 21.9, 21.9, 21.9, 22.35, 22.35, 22.35, 22.35, 22.35, 22.35, 22.35, 22.35, 22.35, 21.9, 21.9, -0.45, -0.45, 0.0, 0.89, 1.34, 2.24, 2.68, 3.58, 4.02, 4.47, 4.92, 5.36, 6.26, 6.71, 7.15, 8.05, 8.49, 8.94, 9.39, 9.83, 10.28, 10.73, 11.18, 11.62, 12.07, 12.07, 12.52, 12.52, 12.52, 12.52, 12.52, 12.52, 12.52, 12.52, 12.52, 12.52, 12.52, 12.52, 12.07, 12.07, 12.07, 12.07, 11.62, 11.62, 11.62, 11.18, 11.62, 11.62, 11.62, 12.07, 12.07, 12.52, 12.96, 13.41, 13.86, 14.3, 14.75, 15.2, 15.65, 16.09, 15.65, 16.09, 16.09, 16.54, 16.99, 16.99, 17.43, 17.88, 18.78, 19.22, 20.12, 20.56, 21.01, 21.9, 22.35, 21.9, 21.46, 21.46, 22.35, 22.35, 21.9, 21.9, 21.9, 21.9, 21.9, 21.9, 22.35, 22.35, 21.9, 21.9, 21.9, 21.9, 21.9, 22.35, 22.35, 22.35, 21.9, 21.9, -0.45, -0.45, 0.0, 0.45, 1.34, 2.24, 2.68, 3.58, 4.02, 4.47, 5.36, 5.81, 6.26, 7.15, 7.6, 8.05, 8.94, 9.39, 9.39, 9.83, 10.73, 11.18, 11.62, 12.07, 12.07, 12.52, 12.52, 12.52, 12.52, 12.52, 12.52, 12.52, 12.96, 12.96, 12.52, 12.52, 12.52, 12.52, 12.52, 12.52, 12.07, 12.07, 12.07, 12.07, 11.62, 11.62, 12.07, 12.07, 12.07, 12.52, 12.96, 13.41, 13.86, 14.3, 14.75, 15.2, 15.65, 15.65, 16.09, 16.54, 16.54, 16.54, 16.54, 16.54, 16.99, 17.43, 17.88, 18.33, 19.22, 19.67, 20.12, 21.01, 21.46, 21.9, 22.35, 21.9, 21.46, 21.01, 21.46, 21.9, 21.9, 22.35, 22.35, 22.35, 22.35, 22.35, 22.35, 21.9, 21.9, 21.46, 21.46, 21.46, 21.9, 21.9, 21.9, 21.9, 21.9, 21.9, -0.45, -0.45, 0.0, 0.45, 1.34, 2.24, 2.68, 3.58, 4.02, 4.47, 5.36, 5.81, 6.26, 7.15, 7.6, 8.05, 8.94, 9.39, 9.83, 10.28, 10.73, 11.18, 11.62, 12.07, 12.52, 12.52, 12.52, 12.52, 12.52, 12.96, 12.96, 12.96, 12.96, 12.96, 12.96, 12.96, 12.96, 12.96, 12.52, 12.52, 12.52, 12.52, 12.07, 12.07, 12.07, 12.52, 12.52, 12.52, 12.52, 12.96, 13.41, 13.86, 14.3, 14.75, 15.2, 15.65, 16.09, 16.09, 16.54, 16.54, 16.54, 16.54, 16.54, 16.99, 16.99, 17.43, 17.88, 18.33, 19.22, 19.67, 20.56, 21.46, 21.9, 21.9, 21.9, 21.9, 21.46, 21.01, 21.01, 21.01, 21.9, 22.35, 22.35, 22.35, 22.35, 21.9, 21.9, 21.9, 21.46, 21.46, 21.01, 21.46, 21.46, 21.9, 21.9, 21.9, 21.9, 21.9, -0.89, -0.89, 0.0, 0.45, 1.34, 2.24, 2.68, 3.58, 4.02, 4.92, 5.36, 5.81, 6.71, 7.15, 7.6, 8.05, 8.49, 9.39, 9.83, 10.73, 11.18, 11.62, 12.07, 12.52, 12.52, 12.52, 12.96, 12.96, 12.96, 12.96, 12.96, 12.96, 12.96, 12.96, 12.96, 12.96, 12.96, 12.96, 12.96, 12.96, 12.96, 12.52, 12.52, 12.52, 12.52, 12.96, 12.96, 12.96, 12.96, 12.96, 13.86, 14.3, 14.75, 15.2, 15.65, 16.09, 16.54, 16.54, 16.99, 16.99, 16.99, 16.99, 16.99, 16.99, 16.99, 17.43, 17.88, 18.33, 19.22, 19.67, 20.56, 21.46, 21.9, 22.35, 22.35, 21.46, 21.9, 21.9, 21.46, 21.01, 21.46, 21.9, 22.35, 22.35, 21.9, 21.9, 21.9, 21.46, 21.01, 21.01, 21.01, 21.01, 21.46, 21.46, 21.9, 21.9, 21.9, 21.9, -0.89, -0.89, 0.0, 0.45, 0.89, 1.79, 2.68, 3.58, 4.02, 4.47, 5.36, 5.81, 6.71, 7.15, 7.6, 8.05, 8.49, 8.94, 10.28, 10.73, 11.18, 11.62, 12.07, 12.52, 12.52, 12.96, 12.96, 12.96, 12.96, 12.96, 12.96, 13.41, 13.41, 13.41, 12.96, 12.96, 12.96, 12.96, 12.96, 12.96, 12.96, 12.96, 12.96, 12.52, 12.07, 12.52, 13.41, 13.41, 13.41, 13.86, 14.3, 14.75, 15.2, 15.65, 16.09, 16.54, 16.99, 16.99, 16.99, 16.99, 16.99, 16.99, 16.99, 17.43, 17.43, 17.88, 18.33, 18.78, 19.67, 20.12, 20.56, 21.46, 21.9, 22.8, 22.8, 21.9, 21.46, 21.46, 21.46, 21.01, 21.01, 21.46, 21.9, 21.9, 21.9, 21.9, 21.46, 21.46, 21.01, 21.01, 21.01, 21.01, 21.01, 21.46, 21.46, 21.46, 21.9, 21.9, -1.34, -1.34, -0.45, 0.0, 0.89, 1.79, 2.68, 3.13, 4.02, 4.47, 5.36, 5.81, 6.26, 7.15, 7.6, 8.05, 8.49, 9.39, 10.28, 10.73, 11.62, 12.07, 12.07, 12.52, 12.52, 12.96, 12.96, 12.96, 12.96, 12.96, 13.41, 13.41, 13.41, 13.41, 13.41, 13.41, 13.41, 12.96, 12.96, 12.96, 12.96, 12.96, 12.96, 12.96, 12.96, 12.52, 13.41, 13.41, 13.86, 14.3, 14.75, 15.2, 15.65, 16.09, 16.54, 16.54, 16.99, 17.43, 17.43, 16.99, 16.99, 17.43, 17.43, 17.88, 17.88, 18.78, 18.78, 19.22, 19.67, 20.12, 20.56, 21.46, 21.9, 22.8, 23.25, 22.35, 21.46, 21.01, 21.46, 21.01, 21.01, 21.46, 21.9, 21.9, 21.9, 21.9, 21.46, 21.01, 21.01, 20.56, 20.56, 21.01, 21.01, 21.01, 21.46, 21.46, 21.9, 21.9, -1.34, -1.34, -0.45, 0.0, 0.89, 1.79, 2.24, 3.13, 3.58, 4.47, 4.92, 5.81, 6.26, 7.15, 7.6, 8.05, 8.94, 9.39, 9.83, 11.18, 11.62, 12.07, 12.07, 12.52, 12.52, 12.96, 12.96, 12.96, 12.96, 13.41, 13.41, 13.41, 13.41, 13.41, 13.41, 13.41, 13.41, 13.41, 13.41, 13.41, 12.96, 12.96, 12.96, 12.96, 13.41, 13.41, 13.86, 13.86, 14.3, 14.75, 15.2, 15.65, 15.65, 16.09, 16.54, 16.99, 17.43, 17.43, 17.43, 17.43, 17.43, 17.43, 17.88, 18.33, 18.33, 18.78, 19.22, 19.67, 20.12, 20.56, 21.01, 21.46, 21.9, 22.8, 23.25, 23.25, 22.35, 21.46, 21.01, 21.46, 21.46, 21.01, 21.46, 21.46, 21.46, 21.46, 21.46, 21.01, 20.56, 20.56, 20.56, 20.56, 20.56, 21.01, 21.46, 21.46, 21.46, 21.46, -1.79, -1.79, -0.89, 0.0, 0.45, 1.34, 2.24, 2.68, 3.58, 4.47, 4.92, 5.81, 6.26, 7.15, 7.6, 8.05, 8.94, 9.39, 9.83, 11.18, 11.62, 12.07, 12.07, 12.52, 12.52, 12.96, 12.96, 12.96, 12.96, 13.41, 13.41, 13.41, 13.41, 13.41, 13.41, 13.41, 13.41, 13.41, 13.41, 13.41, 13.41, 13.41, 13.41, 13.41, 13.41, 13.86, 14.3, 14.3, 14.75, 15.2, 15.65, 15.65, 16.09, 16.09, 16.54, 16.99, 17.43, 17.43, 17.43, 17.43, 17.88, 17.88, 17.88, 18.33, 18.78, 19.22, 19.67, 19.67, 20.12, 20.56, 21.01, 21.46, 21.9, 22.35, 22.8, 23.25, 23.25, 22.8, 21.46, 21.01, 21.46, 21.46, 21.46, 21.46, 21.46, 21.46, 21.01, 20.56, 20.12, 20.12, 20.12, 20.56, 20.56, 21.01, 21.46, 21.46, 21.46, 21.46, -1.79, -1.79, -0.89, 0.0, 0.45, 1.34, 1.79, 2.68, 3.13, 4.02, 4.92, 5.36, 6.26, 7.15, 7.6, 8.05, 8.94, 9.39, 9.83, 11.18, 11.62, 11.62, 12.07, 12.52, 12.52, 12.52, 12.96, 12.96, 12.96, 12.96, 13.41, 13.41, 13.41, 13.41, 13.41, 13.41, 13.41, 13.41, 13.41, 13.86, 13.86, 13.86, 13.86, 13.86, 13.86, 14.3, 14.75, 14.75, 15.2, 15.2, 15.65, 15.65, 16.09, 16.09, 16.54, 16.99, 17.43, 17.43, 17.43, 17.88, 17.88, 17.88, 18.33, 18.78, 18.78, 19.22, 19.67, 19.67, 20.12, 20.56, 21.01, 21.46, 21.9, 22.35, 22.8, 23.25, 23.69, 23.25, 22.35, 21.46, 21.01, 21.46, 21.46, 21.01, 21.01, 21.01, 21.01, 20.12, 20.12, 20.12, 20.12, 20.56, 20.56, 21.01, 21.01, 21.46, 21.46, 21.46, -1.79, -1.79, -1.34, -0.45, 0.45, 0.89, 1.79, 2.24, 3.13, 4.02, 4.47, 5.36, 6.26, 6.71, 7.6, 8.05, 8.94, 9.39, 9.83, 10.73, 11.62, 11.62, 12.07, 12.07, 12.52, 12.52, 12.96, 12.96, 12.96, 12.96, 12.96, 12.96, 13.41, 13.41, 13.41, 13.41, 13.41, 13.86, 13.86, 13.86, 13.86, 13.86, 14.3, 14.3, 14.3, 14.75, 15.2, 15.2, 15.2, 15.65, 15.65, 15.65, 16.09, 16.54, 16.54, 16.99, 17.43, 17.43, 17.43, 17.88, 17.88, 17.88, 18.33, 18.78, 18.78, 19.22, 19.67, 20.12, 20.12, 20.56, 21.01, 21.46, 21.9, 21.9, 22.35, 22.8, 23.25, 23.25, 23.25, 22.35, 21.9, 21.46, 21.46, 21.01, 21.01, 21.01, 20.56, 20.12, 19.67, 19.67, 20.12, 20.12, 20.12, 20.56, 20.56, 21.01, 21.01, 21.01, -2.24, -2.24, -1.34, -0.45, 0.0, 0.45, 1.34, 2.24, 3.13, 3.58, 4.47, 5.36, 5.81, 6.71, 7.6, 8.05, 8.49, 9.39, 9.83, 10.28, 11.18, 11.62, 12.07, 12.07, 12.52, 12.52, 12.52, 12.96, 12.96, 12.96, 12.96, 12.96, 13.41, 13.41, 13.41, 13.41, 13.86, 13.86, 13.86, 13.86, 14.3, 14.3, 14.3, 14.3, 14.75, 15.2, 15.2, 15.65, 15.65, 15.65, 16.09, 16.09, 16.09, 16.54, 16.99, 17.43, 17.43, 17.43, 17.43, 17.88, 17.88, 18.33, 18.33, 18.78, 19.22, 19.22, 19.67, 20.12, 20.56, 20.56, 21.01, 21.46, 21.46, 21.9, 22.35, 22.8, 22.8, 23.25, 23.25, 22.8, 22.35, 21.9, 21.46, 21.46, 21.46, 21.01, 20.56, 19.67, 19.67, 19.67, 19.67, 19.67, 19.67, 20.12, 20.56, 21.01, 21.01, 21.01, -2.24, -2.24, -1.34, -0.89, 0.0, 0.45, 1.34, 2.24, 2.68, 3.58, 4.47, 5.36, 5.81, 6.71, 7.15, 8.05, 8.49, 9.39, 9.83, 10.28, 10.73, 11.62, 11.62, 12.07, 12.07, 12.52, 12.52, 12.52, 12.96, 12.96, 12.96, 12.96, 13.41, 13.41, 13.41, 13.86, 13.86, 13.86, 13.86, 14.3, 14.3, 14.3, 14.3, 14.75, 15.2, 15.2, 15.65, 15.65, 15.65, 16.09, 16.09, 16.09, 16.54, 16.99, 16.99, 16.99, 17.43, 17.43, 17.43, 17.88, 17.88, 18.33, 18.78, 18.78, 19.22, 19.67, 19.67, 20.12, 20.56, 21.01, 21.01, 21.46, 21.46, 21.9, 21.9, 22.35, 22.8, 22.8, 23.25, 22.8, 22.8, 22.35, 21.46, 21.46, 21.46, 21.01, 20.12, 19.67, 19.67, 19.67, 19.67, 19.67, 19.67, 20.12, 20.56, 21.01, 21.01, 21.01, -2.24, -2.24, -1.79, -0.89, 0.0, 0.45, 1.34, 1.79, 2.68, 3.58, 4.47, 4.92, 5.81, 6.71, 7.15, 8.05, 8.49, 8.94, 9.39, 10.28, 10.28, 11.18, 11.62, 11.62, 12.07, 12.07, 12.52, 12.52, 12.52, 12.96, 12.96, 12.96, 13.41, 13.41, 13.41, 13.86, 13.86, 13.86, 14.3, 14.3, 14.3, 14.3, 14.75, 14.75, 15.2, 15.65, 15.65, 15.65, 15.65, 16.09, 16.09, 16.54, 16.54, 16.99, 16.99, 16.99, 16.99, 17.43, 17.43, 17.88, 17.88, 18.33, 18.78, 19.22, 19.22, 19.67, 19.67, 20.12, 20.56, 21.01, 21.01, 21.01, 21.46, 21.46, 21.9, 22.35, 22.35, 22.8, 22.8, 22.8, 22.8, 22.35, 21.46, 21.01, 21.01, 21.01, 19.67, 19.22, 19.22, 19.67, 19.67, 19.67, 19.67, 20.12, 20.56, 21.46, 21.46, 21.46, -2.68, -2.68, -1.79, -0.89, 0.0, 0.45, 0.89, 1.79, 2.68, 3.58, 4.02, 4.92, 5.81, 6.26, 7.15, 7.6, 8.49, 8.94, 9.39, 9.83, 10.28, 10.73, 11.18, 11.62, 11.62, 12.07, 12.07, 12.52, 12.52, 12.52, 12.96, 12.96, 13.41, 13.41, 13.41, 13.86, 13.86, 13.86, 14.3, 14.3, 14.75, 14.75, 14.75, 15.2, 15.2, 15.65, 15.65, 15.65, 15.65, 15.65, 16.09, 16.09, 16.54, 16.99, 16.99, 16.99, 16.99, 17.43, 17.88, 17.88, 18.33, 18.78, 18.78, 19.22, 19.67, 19.67, 20.12, 20.12, 20.12, 20.56, 20.56, 21.01, 21.46, 21.46, 21.9, 21.9, 22.35, 22.8, 22.8, 22.8, 22.8, 22.8, 21.9, 21.46, 21.46, 20.56, 20.12, 19.67, 19.67, 19.22, 19.67, 19.67, 20.12, 20.56, 21.01, 21.9, 21.9, 21.9, -2.68, -2.68, -1.79, -0.89, -0.45, 0.0, 0.89, 1.79, 2.68, 3.13, 4.02, 4.92, 5.36, 6.26, 6.71, 7.6, 8.05, 8.49, 8.94, 9.39, 9.83, 10.28, 10.73, 11.18, 11.62, 11.62, 12.07, 12.07, 12.07, 12.52, 12.96, 12.96, 13.41, 13.41, 13.41, 13.86, 13.86, 13.86, 14.3, 14.3, 14.75, 14.75, 14.75, 15.2, 15.2, 15.2, 15.2, 15.2, 15.65, 15.65, 16.09, 16.09, 16.54, 16.54, 16.99, 16.99, 17.43, 17.43, 17.88, 18.33, 18.33, 18.78, 19.22, 19.22, 19.67, 19.67, 20.12, 20.12, 20.12, 20.12, 20.56, 20.56, 20.56, 21.01, 21.9, 21.9, 22.35, 22.35, 22.8, 22.8, 22.8, 22.8, 21.9, 21.9, 21.01, 21.01, 20.56, 20.12, 20.12, 19.67, 19.67, 19.67, 20.12, 20.56, 21.01, 21.9, 21.9, 21.9, -2.68, -2.68, -1.79, -1.34, -0.45, 0.0, 0.89, 1.79, 2.24, 3.13, 4.02, 4.47, 5.36, 5.81, 6.71, 7.15, 7.6, 8.05, 8.49, 8.94, 9.39, 9.83, 10.28, 10.73, 11.18, 11.18, 11.62, 11.62, 12.07, 12.52, 12.52, 12.96, 12.96, 13.41, 13.41, 13.41, 13.86, 13.86, 14.3, 14.3, 14.3, 14.75, 14.75, 14.75, 15.2, 15.2, 15.2, 15.2, 15.2, 15.65, 15.65, 16.09, 16.09, 16.54, 16.54, 16.99, 17.43, 17.43, 17.88, 18.33, 18.33, 18.78, 19.22, 19.22, 19.22, 19.67, 19.67, 19.67, 20.12, 20.12, 20.12, 20.12, 20.12, 20.56, 21.46, 21.9, 21.9, 22.35, 22.35, 22.8, 22.8, 22.35, 21.9, 21.46, 21.01, 21.01, 20.56, 20.12, 20.12, 20.12, 20.12, 20.12, 20.12, 20.56, 21.01, 21.9, 21.9, 21.9, -2.68, -2.68, -2.24, -1.34, -0.45, 0.0, 0.45, 1.34, 2.24, 3.13, 3.58, 4.47, 4.92, 5.81, 6.26, 6.71, 7.15, 7.6, 8.05, 8.49, 8.94, 9.39, 9.83, 10.28, 10.73, 10.73, 11.18, 11.62, 11.62, 12.07, 12.52, 12.52, 12.96, 12.96, 13.41, 13.41, 13.41, 13.86, 13.86, 14.3, 14.3, 14.3, 14.3, 14.75, 14.75, 14.75, 14.75, 15.2, 15.2, 15.65, 15.65, 15.65, 16.09, 16.09, 16.54, 16.99, 16.99, 17.43, 17.88, 18.33, 18.33, 18.78, 18.78, 19.22, 19.22, 19.22, 19.67, 19.67, 19.67, 20.12, 20.12, 20.12, 20.12, 20.56, 20.56, 21.46, 21.9, 21.9, 21.9, 21.9, 22.35, 21.9, 21.01, 21.01, 21.01, 20.56, 20.12, 19.67, 20.12, 20.12, 20.12, 20.12, 20.56, 20.56, 21.01, 21.46, 21.46, 21.46, -3.13, -3.13, -2.24, -1.34, -0.45, 0.0, 0.45, 1.34, 1.79, 2.68, 3.58, 4.02, 4.47, 5.36, 5.81, 6.26, 6.71, 7.15, 7.6, 8.05, 8.49, 8.94, 9.39, 9.83, 10.28, 10.28, 10.73, 11.18, 11.62, 11.62, 12.07, 12.07, 12.52, 12.96, 12.96, 13.41, 13.41, 13.41, 13.86, 13.86, 13.86, 13.86, 14.3, 14.3, 14.3, 14.75, 14.75, 14.75, 15.2, 15.2, 15.2, 15.65, 16.09, 16.09, 16.54, 16.99, 16.99, 17.43, 17.88, 17.88, 18.33, 18.78, 18.78, 18.78, 19.22, 19.22, 19.22, 19.22, 19.67, 19.67, 20.12, 20.12, 20.12, 20.56, 20.56, 21.01, 21.46, 21.46, 21.9, 21.9, 21.9, 21.9, 21.01, 20.12, 20.12, 20.56, 19.67, 19.67, 19.67, 20.12, 20.12, 20.56, 20.56, 21.01, 21.01, 21.46, 21.46, 21.46, -3.13, -3.13, -2.24, -1.34, -0.89, 0.0, 0.45, 0.89, 1.79, 2.24, 3.13, 3.58, 4.47, 4.92, 5.36, 5.81, 6.26, 6.71, 7.15, 7.6, 8.05, 8.49, 8.49, 9.39, 9.83, 10.28, 10.28, 10.73, 11.18, 11.18, 11.62, 12.07, 12.07, 12.52, 12.52, 12.96, 12.96, 13.41, 13.41, 13.41, 13.41, 13.86, 13.86, 13.86, 14.3, 14.3, 14.3, 14.75, 14.75, 15.2, 15.2, 15.2, 15.65, 16.09, 16.54, 16.54, 16.99, 17.43, 17.88, 17.88, 18.33, 18.33, 18.33, 18.78, 18.78, 18.78, 18.78, 19.22, 19.22, 19.67, 19.67, 20.12, 20.12, 20.56, 20.56, 21.01, 21.01, 21.46, 21.46, 21.9, 21.9, 21.9, 21.01, 20.12, 20.12, 20.12, 19.67, 19.22, 19.67, 20.12, 20.12, 20.56, 20.56, 21.01, 21.01, 21.46, 21.46, 21.46, -3.13, -3.13, -2.24, -1.79, -0.89, 0.0, 0.0, 0.89, 1.34, 2.24, 2.68, 3.13, 4.02, 4.47, 4.92, 5.36, 5.81, 6.26, 6.71, 7.15, 7.6, 8.05, 8.05, 8.94, 9.39, 9.83, 9.83, 10.28, 10.73, 11.18, 11.18, 11.62, 12.07, 12.07, 12.52, 12.52, 12.96, 12.96, 12.96, 12.96, 12.96, 13.41, 13.41, 13.86, 13.86, 13.86, 14.3, 14.3, 14.75, 14.75, 15.2, 15.65, 15.65, 16.09, 16.54, 16.54, 16.99, 17.43, 17.43, 17.88, 17.88, 18.33, 18.33, 18.33, 18.33, 18.78, 18.78, 18.78, 19.22, 19.22, 19.67, 19.67, 20.12, 20.12, 20.56, 20.56, 20.56, 21.46, 21.46, 21.9, 21.9, 21.9, 21.9, 20.56, 20.12, 20.12, 19.67, 19.67, 19.67, 19.67, 20.12, 20.12, 20.56, 21.01, 21.46, 21.46, 21.46, 21.46, -3.13, -3.13, -2.24, -1.79, -0.89, -0.45, 0.0, 0.45, 0.89, 1.79, 2.24, 2.68, 3.58, 4.02, 4.47, 4.92, 5.36, 5.81, 6.26, 6.71, 7.15, 7.15, 7.6, 8.49, 8.94, 9.39, 9.83, 9.83, 10.28, 10.73, 11.18, 11.18, 11.62, 11.62, 12.07, 12.07, 12.52, 12.52, 12.52, 12.52, 12.96, 12.96, 13.41, 13.41, 13.86, 13.86, 13.86, 14.3, 14.3, 14.75, 14.75, 15.65, 15.65, 16.09, 16.54, 16.54, 16.99, 17.43, 17.43, 17.88, 17.88, 17.88, 17.88, 18.33, 18.33, 18.33, 18.78, 18.78, 18.78, 19.22, 19.67, 19.67, 20.12, 20.12, 20.12, 20.56, 20.56, 21.01, 21.46, 21.9, 21.9, 21.9, 21.9, 21.01, 20.56, 20.12, 20.12, 19.67, 19.67, 19.67, 19.67, 20.12, 20.56, 21.01, 21.46, 21.46, 21.46, 21.46, -3.13, -3.13, -2.68, -1.79, -1.34, -0.45, 0.0, 0.0, 0.89, 1.34, 1.79, 2.24, 3.13, 3.58, 4.02, 4.47, 4.92, 5.36, 5.81, 6.26, 6.71, 6.71, 7.15, 7.6, 8.49, 8.94, 9.39, 9.83, 9.83, 10.28, 10.73, 11.18, 11.18, 11.62, 11.62, 12.07, 12.07, 12.07, 12.52, 12.52, 12.96, 12.96, 12.96, 13.41, 13.86, 13.86, 13.86, 14.3, 14.3, 14.75, 15.2, 15.65, 15.65, 16.09, 16.54, 16.54, 16.99, 17.43, 17.43, 17.43, 17.88, 17.88, 17.88, 17.88, 18.33, 18.33, 18.33, 18.78, 19.22, 19.22, 19.67, 19.67, 20.12, 20.12, 20.56, 20.56, 20.56, 21.01, 21.46, 21.9, 21.9, 21.9, 21.9, 21.46, 20.56, 20.12, 20.12, 20.12, 20.12, 19.67, 19.67, 19.67, 20.56, 21.01, 21.46, 21.46, 21.46, 21.46, -3.13, -3.13, -2.68, -2.24, -1.34, -0.89, -0.45, 0.0, 0.45, 0.89, 1.34, 2.24, 2.68, 3.13, 3.58, 4.02, 4.47, 4.92, 5.36, 5.81, 6.26, 6.71, 6.71, 7.15, 8.05, 8.49, 8.94, 9.39, 9.83, 9.83, 10.28, 10.73, 10.73, 11.18, 11.62, 11.62, 11.62, 12.07, 12.07, 12.52, 12.96, 12.96, 13.41, 13.41, 13.86, 13.86, 14.3, 14.3, 14.75, 14.75, 15.2, 15.65, 16.09, 16.09, 16.54, 16.99, 16.99, 16.99, 17.43, 17.43, 17.43, 17.43, 17.88, 17.88, 17.88, 18.33, 18.33, 18.78, 19.22, 19.22, 19.67, 20.12, 20.12, 20.56, 20.56, 20.56, 21.01, 21.01, 21.46, 21.9, 21.9, 21.9, 21.9, 21.46, 20.56, 20.12, 20.12, 20.56, 20.12, 19.67, 19.22, 19.67, 20.12, 20.56, 21.01, 21.46, 21.46, 21.46, -3.58, -3.58, -2.68, -2.24, -1.79, -0.89, -0.45, 0.0, 0.0, 0.45, 1.34, 1.79, 2.24, 2.68, 3.13, 3.58, 4.02, 4.47, 4.92, 5.36, 5.81, 6.26, 6.71, 7.15, 7.6, 8.05, 8.49, 8.94, 9.39, 9.83, 9.83, 10.28, 10.73, 10.73, 11.18, 11.62, 11.62, 12.07, 12.07, 12.52, 12.96, 12.96, 13.41, 13.86, 13.86, 13.86, 14.3, 14.75, 14.75, 15.2, 15.65, 15.65, 16.09, 16.09, 16.54, 16.99, 16.99, 16.99, 16.99, 17.43, 17.43, 17.43, 17.88, 17.88, 18.33, 18.33, 18.78, 18.78, 19.22, 19.22, 19.67, 20.12, 20.12, 20.12, 20.56, 20.56, 21.01, 21.01, 21.46, 21.9, 21.9, 22.35, 22.35, 21.9, 21.46, 20.56, 20.12, 20.56, 20.56, 19.67, 19.22, 19.22, 19.67, 20.12, 20.56, 21.01, 21.01, 21.01, -3.58, -3.58, -2.68, -2.24, -1.79, -0.89, -0.45, 0.0, 0.0, 0.45, 1.34, 1.79, 2.24, 2.68, 3.13, 3.58, 4.02, 4.47, 4.92, 5.36, 5.81, 6.26, 6.71, 7.15, 7.6, 8.05, 8.49, 8.94, 9.39, 9.83, 9.83, 10.28, 10.73, 10.73, 11.18, 11.62, 11.62, 12.07, 12.07, 12.52, 12.96, 12.96, 13.41, 13.86, 13.86, 13.86, 14.3, 14.75, 14.75, 15.2, 15.65, 15.65, 16.09, 16.09, 16.54, 16.99, 16.99, 16.99, 16.99, 17.43, 17.43, 17.43, 17.88, 17.88, 18.33, 18.33, 18.78, 18.78, 19.22, 19.22, 19.67, 20.12, 20.12, 20.12, 20.56, 20.56, 21.01, 21.01, 21.46, 21.9, 21.9, 22.35, 22.35, 22.35, 21.9, 21.01, 20.56, 20.56, 20.56, 20.12, 19.67, 19.22, 19.22, 19.67, 20.12, 20.56, 20.56, 20.56]}]